Wetterdaten: Montag, 16.11.2015
Datum Zeit Temp. Aussen Temp. o. S. +5cm Feuchte Auss BlattFeu 1 Luftdruck Regen Sonnenschein Regendauer Solar Windben Empfang
16.11.2015 00:00 12,4 C 12,2 C 11,1 C 87 % 0 lf 1014,3 hPa 0,0 l/m 0 min 0 min 0 W/m 25,1 km/h (4 Bft) 93,48 %
16.11.2015 00:02 12,4 C 12,2 C 11,1 C 87 % 0 lf 1014,4 hPa 0,0 l/m 0 min 0 min 0 W/m 23,0 km/h (4 Bft) 92,11 %
16.11.2015 00:05 12,4 C 12,2 C 11,1 C 87 % 0 lf 1014,3 hPa 0,0 l/m 0 min 0 min 0 W/m 27,2 km/h (4 Bft) 95,77 %
16.11.2015 00:06 12,4 C 12,2 C 11,1 C 87 % 0 lf 1014,3 hPa 0,0 l/m 0 min 0 min 0 W/m 18,8 km/h (3 Bft) 91,67 %
16.11.2015 00:08 12,4 C 12,2 C 11,1 C 87 % 0 lf 1014,3 hPa 0,0 l/m 0 min 0 min 0 W/m 25,1 km/h (4 Bft) 93,48 %
16.11.2015 00:10 12,3 C 12,2 C 11,1 C 87 % 0 lf 1014,3 hPa 0,0 l/m 0 min 0 min 0 W/m 25,1 km/h (4 Bft) 95,74 %
16.11.2015 00:12 12,3 C 12,2 C 11,1 C 87 % 0 lf 1014,2 hPa 0,0 l/m 0 min 0 min 0 W/m 27,2 km/h (4 Bft) 95,74 %
16.11.2015 00:14 12,3 C 12,2 C 11,1 C 87 % 0 lf 1014,2 hPa 0,0 l/m 0 min 0 min 0 W/m 27,2 km/h (4 Bft) 91,49 %
16.11.2015 00:16 12,3 C 12,2 C 11,1 C 87 % 0 lf 1014,3 hPa 0,0 l/m 0 min 0 min 0 W/m 20,9 km/h (4 Bft) 93,62 %
16.11.2015 00:18 12,3 C 12,2 C 11,1 C 87 % 0 lf 1014,3 hPa 0,0 l/m 0 min 0 min 0 W/m 29,3 km/h (5 Bft) 93,62 %
16.11.2015 00:20 12,3 C 12,2 C 11,1 C 87 % 0 lf 1014,3 hPa 0,0 l/m 0 min 0 min 0 W/m 23,0 km/h (4 Bft) 91,30 %
16.11.2015 00:22 12,3 C 12,2 C 11,1 C 87 % 0 lf 1014,3 hPa 0,0 l/m 0 min 0 min 0 W/m 20,9 km/h (4 Bft) 93,62 %
16.11.2015 00:24 12,3 C 12,2 C 11,1 C 87 % 0 lf 1014,3 hPa 0,0 l/m 0 min 0 min 0 W/m 27,2 km/h (4 Bft) 95,74 %
16.11.2015 00:26 12,3 C 12,2 C 11,1 C 87 % 0 lf 1014,3 hPa 0,0 l/m 0 min 0 min 0 W/m 29,3 km/h (5 Bft) 89,36 %
16.11.2015 00:28 12,3 C 12,2 C 11,1 C 87 % 0 lf 1014,3 hPa 0,0 l/m 0 min 0 min 0 W/m 31,4 km/h (5 Bft) 95,74 %
16.11.2015 00:30 12,3 C 12,2 C 11,1 C 87 % 0 lf 1014,2 hPa 0,0 l/m 0 min 0 min 0 W/m 23,0 km/h (4 Bft) 91,30 %
16.11.2015 00:32 12,3 C 12,2 C 11,1 C 87 % 0 lf 1014,2 hPa 0,0 l/m 0 min 0 min 0 W/m 20,9 km/h (4 Bft) 89,36 %
16.11.2015 00:34 12,3 C 12,2 C 11,1 C 87 % 0 lf 1014,1 hPa 0,0 l/m 0 min 0 min 0 W/m 27,2 km/h (4 Bft) 93,62 %
16.11.2015 00:36 12,3 C 12,2 C 11,1 C 87 % 0 lf 1014,1 hPa 0,0 l/m 0 min 0 min 0 W/m 20,9 km/h (4 Bft) 93,62 %
16.11.2015 00:38 12,3 C 12,2 C 11,1 C 87 % 0 lf 1014,0 hPa 0,0 l/m 0 min 0 min 0 W/m 20,9 km/h (4 Bft) 95,74 %
16.11.2015 00:40 12,3 C 12,2 C 11,1 C 87 % 0 lf 1014,2 hPa 0,0 l/m 0 min 0 min 0 W/m 25,1 km/h (4 Bft) 89,36 %
16.11.2015 00:42 12,3 C 12,2 C 11,1 C 87 % 0 lf 1014,1 hPa 0,0 l/m 0 min 0 min 0 W/m 20,9 km/h (4 Bft) 91,30 %
16.11.2015 00:44 12,3 C 12,2 C 11,1 C 87 % 0 lf 1014,2 hPa 0,0 l/m 0 min 0 min 0 W/m 27,2 km/h (4 Bft) 95,74 %
16.11.2015 00:46 12,3 C 12,2 C 11,1 C 87 % 0 lf 1014,2 hPa 0,0 l/m 0 min 0 min 0 W/m 20,9 km/h (4 Bft) 93,62 %
16.11.2015 00:48 12,3 C 12,2 C 11,1 C 87 % 0 lf 1014,2 hPa 0,0 l/m 0 min 0 min 0 W/m 27,2 km/h (4 Bft) 95,74 %
16.11.2015 00:50 12,3 C 12,2 C 11,1 C 87 % 0 lf 1014,2 hPa 0,0 l/m 0 min 0 min 0 W/m 25,1 km/h (4 Bft) 89,36 %
16.11.2015 00:52 12,3 C 12,2 C 11,1 C 87 % 0 lf 1014,1 hPa 0,0 l/m 0 min 0 min 0 W/m 18,8 km/h (3 Bft) 91,49 %
16.11.2015 00:54 12,3 C 12,2 C 11,1 C 87 % 0 lf 1014,0 hPa 0,0 l/m 0 min 0 min 0 W/m 29,3 km/h (5 Bft) 93,48 %
16.11.2015 00:56 12,3 C 12,2 C 11,1 C 87 % 0 lf 1014,2 hPa 0,0 l/m 0 min 0 min 0 W/m 27,2 km/h (4 Bft) 97,87 %
16.11.2015 00:58 12,3 C 12,2 C 11,1 C 87 % 0 lf 1014,0 hPa 0,0 l/m 0 min 0 min 0 W/m 27,2 km/h (4 Bft) 95,74 %
16.11.2015 01:00 12,3 C 12,2 C 11,1 C 87 % 0 lf 1013,9 hPa 0,0 l/m 0 min 0 min 0 W/m 23,0 km/h (4 Bft) 93,62 %
16.11.2015 01:02 12,3 C 12,2 C 11,1 C 87 % 0 lf 1014,1 hPa 0,0 l/m 0 min 0 min 0 W/m 27,2 km/h (4 Bft) 97,87 %
16.11.2015 01:04 12,3 C 12,2 C 11,1 C 87 % 0 lf 1013,9 hPa 0,0 l/m 0 min 0 min 0 W/m 25,1 km/h (4 Bft) 97,87 %
16.11.2015 01:06 12,3 C 12,2 C 11,1 C 87 % 0 lf 1013,9 hPa 0,0 l/m 0 min 0 min 0 W/m 27,2 km/h (4 Bft) 95,65 %
16.11.2015 01:08 12,3 C 12,2 C 11,1 C 87 % 0 lf 1014,0 hPa 0,0 l/m 0 min 0 min 0 W/m 31,4 km/h (5 Bft) 95,74 %
16.11.2015 01:10 12,3 C 12,2 C 11,1 C 86 % 0 lf 1014,0 hPa 0,0 l/m 0 min 0 min 0 W/m 31,4 km/h (5 Bft) 97,87 %
16.11.2015 01:12 12,3 C 12,2 C 11,1 C 86 % 0 lf 1014,0 hPa 0,0 l/m 0 min 0 min 0 W/m 25,1 km/h (4 Bft) 93,62 %
16.11.2015 01:14 12,3 C 12,2 C 11,1 C 86 % 0 lf 1014,0 hPa 0,0 l/m 0 min 0 min 0 W/m 27,2 km/h (4 Bft) 97,87 %
16.11.2015 01:16 12,3 C 12,2 C 11,1 C 86 % 0 lf 1014,0 hPa 0,0 l/m 0 min 0 min 0 W/m 18,8 km/h (3 Bft) 93,62 %
16.11.2015 01:18 12,3 C 12,2 C 11,1 C 86 % 0 lf 1014,0 hPa 0,0 l/m 0 min 0 min 0 W/m 25,1 km/h (4 Bft) 100,00 %
16.11.2015 01:20 12,3 C 12,8 C 11,1 C 86 % 0 lf 1014,0 hPa 0,0 l/m 0 min 0 min 0 W/m 27,2 km/h (4 Bft) 97,87 %
16.11.2015 01:22 12,3 C 12,8 C 11,1 C 86 % 0 lf 1014,0 hPa 0,0 l/m 0 min 0 min 0 W/m 31,4 km/h (5 Bft) 95,74 %
16.11.2015 01:24 12,3 C 12,8 C 11,1 C 86 % 0 lf 1014,0 hPa 0,0 l/m 0 min 0 min 0 W/m 29,3 km/h (5 Bft) 95,74 %
16.11.2015 01:26 12,3 C 12,8 C 11,1 C 86 % 0 lf 1014,0 hPa 0,0 l/m 0 min 0 min 0 W/m 27,2 km/h (4 Bft) 97,87 %
16.11.2015 01:28 12,3 C 12,8 C 11,1 C 86 % 0 lf 1014,0 hPa 0,0 l/m 0 min 0 min 0 W/m 29,3 km/h (5 Bft) 97,87 %
16.11.2015 01:30 12,4 C 12,8 C 11,1 C 86 % 0 lf 1014,0 hPa 0,0 l/m 0 min 0 min 0 W/m 27,2 km/h (4 Bft) 100,00 %
16.11.2015 01:32 12,4 C 12,8 C 11,1 C 86 % 0 lf 1014,0 hPa 0,0 l/m 0 min 0 min 0 W/m 35,6 km/h (5 Bft) 97,87 %
16.11.2015 01:34 12,4 C 12,8 C 11,1 C 86 % 0 lf 1014,1 hPa 0,0 l/m 0 min 0 min 0 W/m 23,0 km/h (4 Bft) 100,00 %
16.11.2015 01:36 12,4 C 12,8 C 11,1 C 86 % 0 lf 1014,1 hPa 0,0 l/m 0 min 0 min 0 W/m 33,5 km/h (5 Bft) 100,00 %
16.11.2015 01:38 12,4 C 12,8 C 11,1 C 86 % 0 lf 1014,1 hPa 0,0 l/m 0 min 0 min 0 W/m 29,3 km/h (5 Bft) 97,87 %
16.11.2015 01:40 12,4 C 12,8 C 11,1 C 86 % 0 lf 1014,1 hPa 0,0 l/m 0 min 0 min 0 W/m 27,2 km/h (4 Bft) 95,65 %
16.11.2015 01:42 12,4 C 12,8 C 11,1 C 86 % 0 lf 1014,0 hPa 0,0 l/m 0 min 0 min 0 W/m 23,0 km/h (4 Bft) 97,87 %
16.11.2015 01:44 12,4 C 12,8 C 11,1 C 86 % 0 lf 1013,9 hPa 0,0 l/m 0 min 0 min 0 W/m 27,2 km/h (4 Bft) 100,00 %
16.11.2015 01:46 12,4 C 12,8 C 11,1 C 86 % 0 lf 1014,0 hPa 0,0 l/m 0 min 0 min 0 W/m 31,4 km/h (5 Bft) 100,00 %
16.11.2015 01:48 12,4 C 12,8 C 11,1 C 86 % 0 lf 1014,0 hPa 0,0 l/m 0 min 0 min 0 W/m 31,4 km/h (5 Bft) 100,00 %
16.11.2015 01:50 12,5 C 12,8 C 11,1 C 86 % 0 lf 1014,0 hPa 0,0 l/m 0 min 0 min 0 W/m 27,2 km/h (4 Bft) 100,00 %
16.11.2015 01:52 12,5 C 12,8 C 11,1 C 86 % 0 lf 1013,9 hPa 0,0 l/m 0 min 0 min 0 W/m 27,2 km/h (4 Bft) 100,00 %
16.11.2015 01:54 12,5 C 12,8 C 11,1 C 86 % 0 lf 1014,0 hPa 0,0 l/m 0 min 0 min 0 W/m 20,9 km/h (4 Bft) 95,74 %
16.11.2015 01:56 12,5 C 12,8 C 11,1 C 87 % 0 lf 1014,0 hPa 0,0 l/m 0 min 0 min 0 W/m 27,2 km/h (4 Bft) 97,87 %
16.11.2015 01:58 12,5 C 12,8 C 11,1 C 87 % 0 lf 1014,0 hPa 0,0 l/m 0 min 0 min 0 W/m 20,9 km/h (4 Bft) 95,74 %
16.11.2015 02:00 12,5 C 12,8 C 11,1 C 87 % 0 lf 1014,0 hPa 0,0 l/m 0 min 0 min 0 W/m 14,6 km/h (3 Bft) 100,00 %
16.11.2015 02:02 12,5 C 12,8 C 11,1 C 87 % 0 lf 1014,0 hPa 0,0 l/m 0 min 0 min 0 W/m 20,9 km/h (4 Bft) 97,87 %
16.11.2015 02:04 12,5 C 12,8 C 11,1 C 87 % 0 lf 1014,0 hPa 0,0 l/m 0 min 0 min 0 W/m 16,7 km/h (3 Bft) 100,00 %
16.11.2015 02:06 12,5 C 12,8 C 11,1 C 87 % 0 lf 1014,0 hPa 0,0 l/m 0 min 0 min 0 W/m 12,6 km/h (3 Bft) 97,87 %
16.11.2015 02:08 12,5 C 12,8 C 11,1 C 87 % 0 lf 1013,9 hPa 0,0 l/m 0 min 0 min 0 W/m 20,9 km/h (4 Bft) 97,87 %
16.11.2015 02:10 12,5 C 12,8 C 11,1 C 87 % 0 lf 1014,0 hPa 0,0 l/m 0 min 0 min 0 W/m 18,8 km/h (3 Bft) 97,87 %
16.11.2015 02:12 12,6 C 12,8 C 11,1 C 87 % 0 lf 1013,9 hPa 0,0 l/m 0 min 0 min 0 W/m 25,1 km/h (4 Bft) 97,87 %
16.11.2015 02:14 12,6 C 12,8 C 11,1 C 87 % 0 lf 1013,9 hPa 0,0 l/m 0 min 0 min 0 W/m 14,6 km/h (3 Bft) 97,87 %
16.11.2015 02:16 12,6 C 12,8 C 11,1 C 87 % 0 lf 1013,9 hPa 0,0 l/m 0 min 0 min 0 W/m 20,9 km/h (4 Bft) 97,83 %
16.11.2015 02:18 12,6 C 12,8 C 11,1 C 87 % 0 lf 1013,9 hPa 0,0 l/m 0 min 0 min 0 W/m 25,1 km/h (4 Bft) 95,74 %
16.11.2015 02:20 12,6 C 12,8 C 11,1 C 87 % 0 lf 1013,9 hPa 0,0 l/m 0 min 0 min 0 W/m 25,1 km/h (4 Bft) 100,00 %
16.11.2015 02:22 12,6 C 12,8 C 11,1 C 87 % 0 lf 1013,9 hPa 0,0 l/m 0 min 0 min 0 W/m 16,7 km/h (3 Bft) 97,87 %
16.11.2015 02:24 12,6 C 12,8 C 11,1 C 87 % 0 lf 1013,9 hPa 0,0 l/m 0 min 0 min 0 W/m 18,8 km/h (3 Bft) 95,74 %
16.11.2015 02:26 12,6 C 12,8 C 11,1 C 87 % 0 lf 1013,8 hPa 0,0 l/m 0 min 0 min 0 W/m 14,6 km/h (3 Bft) 95,74 %
16.11.2015 02:28 12,6 C 12,8 C 11,1 C 87 % 0 lf 1013,9 hPa 0,0 l/m 0 min 0 min 0 W/m 12,6 km/h (3 Bft) 97,83 %
16.11.2015 02:30 12,6 C 12,8 C 11,1 C 87 % 0 lf 1013,9 hPa 0,0 l/m 0 min 0 min 0 W/m 14,6 km/h (3 Bft) 97,87 %
16.11.2015 02:32 12,6 C 12,8 C 11,1 C 87 % 0 lf 1013,9 hPa 0,0 l/m 0 min 0 min 0 W/m 16,7 km/h (3 Bft) 93,62 %
16.11.2015 02:34 12,6 C 12,8 C 11,1 C 87 % 0 lf 1013,9 hPa 0,0 l/m 0 min 0 min 0 W/m 23,0 km/h (4 Bft) 97,87 %
16.11.2015 02:36 12,6 C 12,8 C 11,1 C 87 % 0 lf 1013,9 hPa 0,0 l/m 0 min 0 min 0 W/m 14,6 km/h (3 Bft) 97,87 %
16.11.2015 02:38 12,6 C 12,8 C 11,1 C 87 % 0 lf 1013,8 hPa 0,0 l/m 0 min 0 min 0 W/m 16,7 km/h (3 Bft) 95,74 %
16.11.2015 02:40 12,6 C 12,8 C 11,1 C 87 % 0 lf 1013,8 hPa 0,0 l/m 0 min 0 min 0 W/m 16,7 km/h (3 Bft) 95,65 %
16.11.2015 02:42 12,7 C 12,8 C 11,1 C 87 % 0 lf 1013,8 hPa 0,0 l/m 0 min 0 min 0 W/m 16,7 km/h (3 Bft) 97,87 %
16.11.2015 02:44 12,7 C 12,8 C 11,1 C 87 % 0 lf 1013,7 hPa 0,0 l/m 0 min 0 min 0 W/m 23,0 km/h (4 Bft) 93,62 %
16.11.2015 02:46 12,7 C 12,8 C 11,7 C 87 % 0 lf 1013,7 hPa 0,0 l/m 0 min 0 min 0 W/m 23,0 km/h (4 Bft) 93,62 %
16.11.2015 02:48 12,7 C 12,8 C 11,7 C 87 % 0 lf 1013,7 hPa 0,0 l/m 0 min 0 min 0 W/m 29,3 km/h (5 Bft) 95,74 %
16.11.2015 02:50 12,7 C 12,8 C 11,7 C 87 % 0 lf 1013,7 hPa 0,0 l/m 0 min 0 min 0 W/m 25,1 km/h (4 Bft) 93,48 %
16.11.2015 02:52 12,7 C 12,8 C 11,7 C 87 % 0 lf 1013,8 hPa 0,0 l/m 0 min 0 min 0 W/m 14,6 km/h (3 Bft) 95,74 %
16.11.2015 02:54 12,7 C 12,8 C 11,7 C 87 % 0 lf 1013,7 hPa 0,0 l/m 0 min 0 min 0 W/m 27,2 km/h (4 Bft) 97,87 %
16.11.2015 02:56 12,7 C 12,8 C 11,7 C 86 % 0 lf 1013,7 hPa 0,0 l/m 0 min 0 min 0 W/m 27,2 km/h (4 Bft) 97,87 %
16.11.2015 02:58 12,7 C 12,8 C 11,7 C 86 % 0 lf 1013,7 hPa 0,0 l/m 0 min 0 min 0 W/m 18,8 km/h (3 Bft) 97,87 %
16.11.2015 03:00 12,8 C 12,8 C 11,7 C 86 % 0 lf 1013,6 hPa 0,0 l/m 0 min 0 min 0 W/m 20,9 km/h (4 Bft) 97,87 %
16.11.2015 03:02 12,8 C 12,8 C 11,7 C 86 % 0 lf 1013,7 hPa 0,0 l/m 0 min 0 min 0 W/m 18,8 km/h (3 Bft) 95,65 %
16.11.2015 03:04 12,8 C 12,8 C 11,7 C 86 % 0 lf 1013,6 hPa 0,0 l/m 0 min 0 min 0 W/m 18,8 km/h (3 Bft) 95,74 %
16.11.2015 03:06 12,8 C 12,8 C 11,7 C 86 % 0 lf 1013,7 hPa 0,0 l/m 0 min 0 min 0 W/m 20,9 km/h (4 Bft) 97,87 %
16.11.2015 03:08 12,8 C 12,8 C 11,7 C 86 % 0 lf 1013,7 hPa 0,0 l/m 0 min 0 min 0 W/m 25,1 km/h (4 Bft) 97,87 %
16.11.2015 03:10 12,8 C 12,8 C 11,7 C 86 % 0 lf 1013,6 hPa 0,0 l/m 0 min 0 min 0 W/m 25,1 km/h (4 Bft) 97,87 %
16.11.2015 03:12 12,8 C 12,8 C 11,7 C 86 % 0 lf 1013,5 hPa 0,0 l/m 0 min 0 min 0 W/m 20,9 km/h (4 Bft) 95,74 %
16.11.2015 03:14 12,8 C 12,8 C 11,7 C 86 % 0 lf 1013,6 hPa 0,0 l/m 0 min 0 min 0 W/m 20,9 km/h (4 Bft) 97,83 %
16.11.2015 03:16 12,8 C 12,8 C 11,7 C 86 % 0 lf 1013,6 hPa 0,0 l/m 0 min 0 min 0 W/m 16,7 km/h (3 Bft) 95,74 %
16.11.2015 03:18 12,8 C 12,8 C 11,7 C 86 % 0 lf 1013,5 hPa 0,0 l/m 0 min 0 min 0 W/m 29,3 km/h (5 Bft) 95,74 %
16.11.2015 03:20 12,8 C 12,8 C 11,7 C 86 % 0 lf 1013,5 hPa 0,0 l/m 0 min 0 min 0 W/m 23,0 km/h (4 Bft) 93,62 %
16.11.2015 03:22 12,8 C 12,8 C 11,7 C 86 % 0 lf 1013,5 hPa 0,0 l/m 0 min 0 min 0 W/m 23,0 km/h (4 Bft) 97,87 %
16.11.2015 03:24 12,8 C 12,8 C 11,7 C 86 % 0 lf 1013,5 hPa 0,0 l/m 0 min 0 min 0 W/m 18,8 km/h (3 Bft) 89,36 %
16.11.2015 03:26 12,8 C 12,8 C 11,7 C 86 % 0 lf 1013,6 hPa 0,0 l/m 0 min 0 min 0 W/m 20,9 km/h (4 Bft) 91,30 %
16.11.2015 03:28 12,9 C 12,8 C 11,7 C 86 % 0 lf 1013,4 hPa 0,0 l/m 0 min 0 min 0 W/m 23,0 km/h (4 Bft) 95,74 %
16.11.2015 03:30 12,9 C 12,8 C 11,7 C 86 % 0 lf 1013,4 hPa 0,0 l/m 0 min 0 min 0 W/m 23,0 km/h (4 Bft) 95,74 %
16.11.2015 03:32 12,8 C 12,8 C 11,7 C 86 % 0 lf 1013,4 hPa 0,0 l/m 0 min 0 min 0 W/m 18,8 km/h (3 Bft) 93,62 %
16.11.2015 03:34 12,9 C 12,8 C 11,7 C 86 % 0 lf 1013,3 hPa 0,0 l/m 0 min 0 min 0 W/m 18,8 km/h (3 Bft) 93,62 %
16.11.2015 03:36 12,9 C 12,8 C 11,7 C 85 % 0 lf 1013,3 hPa 0,0 l/m 0 min 0 min 0 W/m 20,9 km/h (4 Bft) 93,62 %
16.11.2015 03:38 12,9 C 12,8 C 11,7 C 85 % 0 lf 1013,3 hPa 0,0 l/m 0 min 0 min 0 W/m 23,0 km/h (4 Bft) 95,65 %
16.11.2015 03:40 12,8 C 12,8 C 11,7 C 85 % 0 lf 1013,4 hPa 0,0 l/m 0 min 0 min 0 W/m 29,3 km/h (5 Bft) 95,74 %
16.11.2015 03:42 12,8 C 13,3 C 11,7 C 85 % 0 lf 1013,3 hPa 0,0 l/m 0 min 0 min 0 W/m 25,1 km/h (4 Bft) 91,49 %
16.11.2015 03:44 12,9 C 12,8 C 11,7 C 85 % 0 lf 1013,4 hPa 0,0 l/m 0 min 0 min 0 W/m 16,7 km/h (3 Bft) 95,74 %
16.11.2015 03:46 12,9 C 12,8 C 11,7 C 85 % 0 lf 1013,3 hPa 0,0 l/m 0 min 0 min 0 W/m 20,9 km/h (4 Bft) 95,74 %
16.11.2015 03:48 12,8 C 12,8 C 11,7 C 85 % 0 lf 1013,3 hPa 0,0 l/m 0 min 0 min 0 W/m 25,1 km/h (4 Bft) 93,62 %
16.11.2015 03:50 12,9 C 12,8 C 11,7 C 85 % 0 lf 1013,4 hPa 0,0 l/m 0 min 0 min 0 W/m 20,9 km/h (4 Bft) 93,48 %
16.11.2015 03:52 12,9 C 12,8 C 11,7 C 85 % 0 lf 1013,4 hPa 0,0 l/m 0 min 0 min 0 W/m 14,6 km/h (3 Bft) 93,62 %
16.11.2015 03:54 12,9 C 12,8 C 11,7 C 85 % 0 lf 1013,4 hPa 0,0 l/m 0 min 0 min 0 W/m 18,8 km/h (3 Bft) 93,62 %
16.11.2015 03:56 12,9 C 12,8 C 11,7 C 85 % 0 lf 1013,3 hPa 0,0 l/m 0 min 0 min 0 W/m 23,0 km/h (4 Bft) 95,74 %
16.11.2015 03:58 12,9 C 12,8 C 11,7 C 85 % 0 lf 1013,4 hPa 0,0 l/m 0 min 0 min 0 W/m 23,0 km/h (4 Bft) 93,62 %
16.11.2015 04:00 12,8 C 12,8 C 11,7 C 85 % 0 lf 1013,4 hPa 0,0 l/m 0 min 0 min 0 W/m 20,9 km/h (4 Bft) 95,74 %
16.11.2015 04:02 12,8 C 12,8 C 11,7 C 85 % 0 lf 1013,3 hPa 0,0 l/m 0 min 0 min 0 W/m 23,0 km/h (4 Bft) 100,00 %
16.11.2015 04:04 12,8 C 12,8 C 11,7 C 85 % 0 lf 1013,3 hPa 0,0 l/m 0 min 0 min 0 W/m 25,1 km/h (4 Bft) 97,87 %
16.11.2015 04:06 12,8 C 12,8 C 11,7 C 84 % 0 lf 1013,3 hPa 0,0 l/m 0 min 0 min 0 W/m 18,8 km/h (3 Bft) 95,74 %
16.11.2015 04:08 12,8 C 12,8 C 11,7 C 84 % 0 lf 1013,3 hPa 0,0 l/m 0 min 0 min 0 W/m 29,3 km/h (5 Bft) 93,62 %
16.11.2015 04:10 12,8 C 12,8 C 11,1 C 84 % 0 lf 1013,4 hPa 0,0 l/m 0 min 0 min 0 W/m 25,1 km/h (4 Bft) 95,74 %
16.11.2015 04:12 12,8 C 12,8 C 11,7 C 84 % 0 lf 1013,3 hPa 0,0 l/m 0 min 0 min 0 W/m 33,5 km/h (5 Bft) 95,65 %
16.11.2015 04:14 12,8 C 12,8 C 11,7 C 84 % 0 lf 1013,2 hPa 0,0 l/m 0 min 0 min 0 W/m 31,4 km/h (5 Bft) 93,62 %
16.11.2015 04:16 12,8 C 12,8 C 11,7 C 84 % 0 lf 1013,3 hPa 0,0 l/m 0 min 0 min 0 W/m 29,3 km/h (5 Bft) 89,36 %
16.11.2015 04:18 12,8 C 12,8 C 11,7 C 83 % 0 lf 1013,3 hPa 0,0 l/m 0 min 0 min 0 W/m 33,5 km/h (5 Bft) 93,62 %
16.11.2015 04:20 12,8 C 12,8 C 11,7 C 83 % 0 lf 1013,3 hPa 0,0 l/m 0 min 0 min 0 W/m 27,2 km/h (4 Bft) 89,36 %
16.11.2015 04:22 12,8 C 12,8 C 11,1 C 83 % 0 lf 1013,2 hPa 0,0 l/m 0 min 0 min 0 W/m 25,1 km/h (4 Bft) 87,23 %
16.11.2015 04:24 12,8 C 12,8 C 11,1 C 83 % 0 lf 1013,3 hPa 0,0 l/m 0 min 0 min 0 W/m 27,2 km/h (4 Bft) 95,65 %
16.11.2015 04:26 12,8 C 12,8 C 11,1 C 83 % 0 lf 1013,2 hPa 0,0 l/m 0 min 0 min 0 W/m 31,4 km/h (5 Bft) 95,74 %
16.11.2015 04:28 12,8 C 12,8 C 11,1 C 83 % 0 lf 1013,2 hPa 0,0 l/m 0 min 0 min 0 W/m 27,2 km/h (4 Bft) 91,49 %
16.11.2015 04:30 12,8 C 12,8 C 11,1 C 83 % 0 lf 1013,2 hPa 0,0 l/m 0 min 0 min 0 W/m 29,3 km/h (5 Bft) 95,74 %
16.11.2015 04:32 12,8 C 12,8 C 11,1 C 83 % 0 lf 1013,2 hPa 0,0 l/m 0 min 0 min 0 W/m 25,1 km/h (4 Bft) 97,87 %
16.11.2015 04:34 12,8 C 12,8 C 11,1 C 83 % 0 lf 1013,1 hPa 0,0 l/m 0 min 0 min 0 W/m 25,1 km/h (4 Bft) 95,74 %
16.11.2015 04:36 12,8 C 12,8 C 11,1 C 83 % 0 lf 1013,1 hPa 0,0 l/m 0 min 0 min 0 W/m 25,1 km/h (4 Bft) 95,65 %
16.11.2015 04:38 12,7 C 12,8 C 11,1 C 83 % 0 lf 1013,1 hPa 0,0 l/m 0 min 0 min 0 W/m 20,9 km/h (4 Bft) 97,87 %
16.11.2015 04:40 12,7 C 12,8 C 11,1 C 83 % 0 lf 1013,1 hPa 0,0 l/m 0 min 0 min 0 W/m 29,3 km/h (5 Bft) 93,62 %
16.11.2015 04:42 12,7 C 12,8 C 11,1 C 83 % 0 lf 1013,2 hPa 0,0 l/m 0 min 0 min 0 W/m 23,0 km/h (4 Bft) 95,74 %
16.11.2015 04:44 12,7 C 12,8 C 11,1 C 83 % 0 lf 1013,1 hPa 0,0 l/m 0 min 0 min 0 W/m 20,9 km/h (4 Bft) 95,74 %
16.11.2015 04:46 12,7 C 12,8 C 11,1 C 83 % 0 lf 1013,1 hPa 0,0 l/m 0 min 0 min 0 W/m 25,1 km/h (4 Bft) 95,74 %
16.11.2015 04:48 12,7 C 12,8 C 11,1 C 83 % 0 lf 1013,1 hPa 0,0 l/m 0 min 0 min 0 W/m 20,9 km/h (4 Bft) 97,83 %
16.11.2015 04:50 12,7 C 12,8 C 11,1 C 83 % 0 lf 1013,1 hPa 0,0 l/m 0 min 0 min 0 W/m 23,0 km/h (4 Bft) 100,00 %
16.11.2015 04:52 12,7 C 12,8 C 11,1 C 83 % 0 lf 1013,1 hPa 0,0 l/m 0 min 0 min 0 W/m 29,3 km/h (5 Bft) 97,87 %
16.11.2015 04:54 12,7 C 12,8 C 11,1 C 83 % 0 lf 1013,0 hPa 0,0 l/m 0 min 0 min 0 W/m 20,9 km/h (4 Bft) 97,87 %
16.11.2015 04:56 12,7 C 12,8 C 11,1 C 83 % 0 lf 1013,0 hPa 0,0 l/m 0 min 0 min 0 W/m 25,1 km/h (4 Bft) 95,74 %
16.11.2015 04:58 12,7 C 12,8 C 11,1 C 83 % 0 lf 1013,1 hPa 0,0 l/m 0 min 0 min 0 W/m 27,2 km/h (4 Bft) 95,74 %
16.11.2015 05:00 12,7 C 12,8 C 11,1 C 83 % 0 lf 1013,1 hPa 0,0 l/m 0 min 0 min 0 W/m 16,7 km/h (3 Bft) 100,00 %
16.11.2015 05:02 12,7 C 12,8 C 11,1 C 83 % 0 lf 1013,0 hPa 0,0 l/m 0 min 0 min 0 W/m 33,5 km/h (5 Bft) 95,74 %
16.11.2015 05:04 12,7 C 12,8 C 11,1 C 83 % 0 lf 1013,1 hPa 0,0 l/m 0 min 0 min 0 W/m 25,1 km/h (4 Bft) 100,00 %
16.11.2015 05:06 12,7 C 12,8 C 11,1 C 83 % 0 lf 1013,1 hPa 0,0 l/m 0 min 0 min 0 W/m 25,1 km/h (4 Bft) 97,87 %
16.11.2015 05:08 12,7 C 12,8 C 11,1 C 83 % 0 lf 1013,0 hPa 0,0 l/m 0 min 0 min 0 W/m 31,4 km/h (5 Bft) 100,00 %
16.11.2015 05:10 12,7 C 12,8 C 11,1 C 83 % 0 lf 1013,1 hPa 0,0 l/m 0 min 0 min 0 W/m 25,1 km/h (4 Bft) 100,00 %
16.11.2015 05:12 12,7 C 12,8 C 11,1 C 83 % 0 lf 1013,1 hPa 0,0 l/m 0 min 0 min 0 W/m 27,2 km/h (4 Bft) 100,00 %
16.11.2015 05:14 12,7 C 12,8 C 11,1 C 82 % 0 lf 1013,0 hPa 0,0 l/m 0 min 0 min 0 W/m 29,3 km/h (5 Bft) 97,87 %
16.11.2015 05:16 12,7 C 12,8 C 11,1 C 82 % 0 lf 1013,1 hPa 0,0 l/m 0 min 0 min 0 W/m 23,0 km/h (4 Bft) 95,74 %
16.11.2015 05:18 12,7 C 12,8 C 11,1 C 82 % 0 lf 1013,1 hPa 0,0 l/m 0 min 0 min 0 W/m 33,5 km/h (5 Bft) 97,87 %
16.11.2015 05:20 12,6 C 12,8 C 11,1 C 82 % 0 lf 1013,1 hPa 0,0 l/m 0 min 0 min 0 W/m 29,3 km/h (5 Bft) 100,00 %
16.11.2015 05:22 12,6 C 12,8 C 11,1 C 82 % 0 lf 1013,1 hPa 0,0 l/m 0 min 0 min 0 W/m 31,4 km/h (5 Bft) 97,87 %
16.11.2015 05:24 12,6 C 12,8 C 11,1 C 82 % 0 lf 1013,1 hPa 0,0 l/m 0 min 0 min 0 W/m 31,4 km/h (5 Bft) 97,83 %
16.11.2015 05:26 12,6 C 12,8 C 11,1 C 82 % 0 lf 1013,0 hPa 0,0 l/m 0 min 0 min 0 W/m 31,4 km/h (5 Bft) 95,74 %
16.11.2015 05:28 12,6 C 12,8 C 11,1 C 82 % 0 lf 1013,1 hPa 0,0 l/m 0 min 0 min 0 W/m 25,1 km/h (4 Bft) 100,00 %
16.11.2015 05:30 12,6 C 12,8 C 11,1 C 82 % 0 lf 1013,1 hPa 0,0 l/m 0 min 0 min 0 W/m 29,3 km/h (5 Bft) 100,00 %
16.11.2015 05:32 12,6 C 12,8 C 11,1 C 82 % 0 lf 1013,1 hPa 0,0 l/m 0 min 0 min 0 W/m 31,4 km/h (5 Bft) 100,00 %
16.11.2015 05:34 12,6 C 12,8 C 11,1 C 82 % 0 lf 1013,1 hPa 0,0 l/m 0 min 0 min 0 W/m 37,7 km/h (5 Bft) 97,83 %
16.11.2015 05:36 12,6 C 12,8 C 11,1 C 82 % 0 lf 1013,2 hPa 0,0 l/m 0 min 0 min 0 W/m 35,6 km/h (5 Bft) 97,87 %
16.11.2015 05:38 12,6 C 12,8 C 11,1 C 82 % 0 lf 1013,1 hPa 0,0 l/m 0 min 0 min 0 W/m 31,4 km/h (5 Bft) 97,87 %
16.11.2015 05:40 12,6 C 12,8 C 11,1 C 82 % 0 lf 1013,1 hPa 0,0 l/m 0 min 0 min 0 W/m 23,0 km/h (4 Bft) 97,87 %
16.11.2015 05:42 12,6 C 12,8 C 11,1 C 82 % 0 lf 1013,0 hPa 0,0 l/m 0 min 0 min 0 W/m 35,6 km/h (5 Bft) 97,87 %
16.11.2015 05:44 12,6 C 12,8 C 11,1 C 82 % 0 lf 1013,1 hPa 0,0 l/m 0 min 0 min 0 W/m 29,3 km/h (5 Bft) 95,74 %
16.11.2015 05:46 12,6 C 12,8 C 11,1 C 82 % 0 lf 1013,2 hPa 0,0 l/m 0 min 0 min 0 W/m 39,7 km/h (6 Bft) 97,83 %
16.11.2015 05:48 12,6 C 12,8 C 11,1 C 82 % 0 lf 1013,2 hPa 0,0 l/m 0 min 0 min 0 W/m 33,5 km/h (5 Bft) 97,87 %
16.11.2015 05:50 12,6 C 12,8 C 11,1 C 82 % 0 lf 1013,2 hPa 0,0 l/m 0 min 0 min 0 W/m 33,5 km/h (5 Bft) 95,74 %
16.11.2015 05:52 12,6 C 12,8 C 11,1 C 82 % 0 lf 1013,2 hPa 0,0 l/m 0 min 0 min 0 W/m 31,4 km/h (5 Bft) 93,62 %
16.11.2015 05:54 12,6 C 12,8 C 11,1 C 81 % 0 lf 1013,3 hPa 0,0 l/m 0 min 0 min 0 W/m 27,2 km/h (4 Bft) 97,87 %
16.11.2015 05:56 12,6 C 12,8 C 11,1 C 81 % 0 lf 1013,4 hPa 0,0 l/m 0 min 0 min 0 W/m 35,6 km/h (5 Bft) 95,74 %
16.11.2015 05:58 12,6 C 12,8 C 11,1 C 81 % 0 lf 1013,3 hPa 0,0 l/m 0 min 0 min 0 W/m 25,1 km/h (4 Bft) 97,83 %
16.11.2015 06:00 12,6 C 12,8 C 11,1 C 81 % 0 lf 1013,3 hPa 0,0 l/m 0 min 0 min 0 W/m 29,3 km/h (5 Bft) 95,74 %
16.11.2015 06:02 12,6 C 12,8 C 11,1 C 81 % 0 lf 1013,3 hPa 0,0 l/m 0 min 0 min 0 W/m 33,5 km/h (5 Bft) 93,62 %
16.11.2015 06:04 12,6 C 12,8 C 11,1 C 81 % 0 lf 1013,4 hPa 0,0 l/m 0 min 0 min 0 W/m 20,9 km/h (4 Bft) 97,87 %
16.11.2015 06:06 12,5 C 12,8 C 11,1 C 81 % 0 lf 1013,4 hPa 0,0 l/m 0 min 0 min 0 W/m 20,9 km/h (4 Bft) 97,87 %
16.11.2015 06:08 12,5 C 12,8 C 11,1 C 81 % 0 lf 1013,4 hPa 0,0 l/m 0 min 0 min 0 W/m 37,7 km/h (5 Bft) 95,74 %
16.11.2015 06:10 12,5 C 12,8 C 11,1 C 81 % 0 lf 1013,4 hPa 0,0 l/m 0 min 0 min 0 W/m 29,3 km/h (5 Bft) 95,65 %
16.11.2015 06:12 12,5 C 12,8 C 11,1 C 81 % 0 lf 1013,4 hPa 0,0 l/m 0 min 0 min 0 W/m 33,5 km/h (5 Bft) 93,62 %
16.11.2015 06:14 12,5 C 12,8 C 11,1 C 81 % 0 lf 1013,3 hPa 0,0 l/m 0 min 0 min 0 W/m 16,7 km/h (3 Bft) 93,62 %
16.11.2015 06:16 12,5 C 12,8 C 11,1 C 81 % 0 lf 1013,3 hPa 0,0 l/m 0 min 0 min 0 W/m 27,2 km/h (4 Bft) 97,87 %
16.11.2015 06:18 12,5 C 12,8 C 11,1 C 81 % 0 lf 1013,3 hPa 0,0 l/m 0 min 0 min 0 W/m 23,0 km/h (4 Bft) 93,62 %
16.11.2015 06:20 12,5 C 12,8 C 11,1 C 81 % 0 lf 1013,2 hPa 0,0 l/m 0 min 0 min 0 W/m 29,3 km/h (5 Bft) 93,62 %
16.11.2015 06:22 12,5 C 12,8 C 11,1 C 81 % 0 lf 1013,2 hPa 0,0 l/m 0 min 0 min 0 W/m 31,4 km/h (5 Bft) 89,13 %
16.11.2015 06:24 12,4 C 12,8 C 11,1 C 81 % 0 lf 1013,2 hPa 0,0 l/m 0 min 0 min 0 W/m 25,1 km/h (4 Bft) 93,62 %
16.11.2015 06:26 12,4 C 12,8 C 11,1 C 81 % 0 lf 1013,1 hPa 0,0 l/m 0 min 0 min 0 W/m 27,2 km/h (4 Bft) 93,62 %
16.11.2015 06:28 12,4 C 12,8 C 11,1 C 81 % 0 lf 1013,2 hPa 0,0 l/m 0 min 0 min 0 W/m 20,9 km/h (4 Bft) 97,87 %
16.11.2015 06:30 12,4 C 12,8 C 11,1 C 81 % 0 lf 1013,1 hPa 0,0 l/m 0 min 0 min 0 W/m 18,8 km/h (3 Bft) 93,62 %
16.11.2015 06:32 12,4 C 12,2 C 11,1 C 81 % 0 lf 1013,1 hPa 0,0 l/m 0 min 0 min 0 W/m 27,2 km/h (4 Bft) 91,49 %
16.11.2015 06:34 12,4 C 12,2 C 11,1 C 81 % 0 lf 1013,1 hPa 0,0 l/m 0 min 0 min 0 W/m 14,6 km/h (3 Bft) 95,65 %
16.11.2015 06:36 12,4 C 12,2 C 11,1 C 81 % 0 lf 1013,1 hPa 0,0 l/m 0 min 0 min 0 W/m 35,6 km/h (5 Bft) 89,36 %
16.11.2015 06:38 12,4 C 12,2 C 11,1 C 81 % 0 lf 1013,0 hPa 0,0 l/m 0 min 0 min 0 W/m 29,3 km/h (5 Bft) 91,49 %
16.11.2015 06:40 12,4 C 12,2 C 11,1 C 81 % 0 lf 1013,1 hPa 0,0 l/m 0 min 0 min 0 W/m 16,7 km/h (3 Bft) 91,49 %
16.11.2015 06:42 12,4 C 12,2 C 11,1 C 82 % 0 lf 1013,1 hPa 0,0 l/m 0 min 0 min 0 W/m 29,3 km/h (5 Bft) 100,00 %
16.11.2015 06:44 12,4 C 12,2 C 11,1 C 82 % 0 lf 1013,2 hPa 0,0 l/m 0 min 0 min 0 W/m 20,9 km/h (4 Bft) 93,62 %
16.11.2015 06:46 12,4 C 12,2 C 10,6 C 82 % 0 lf 1013,3 hPa 0,0 l/m 0 min 0 min 0 W/m 20,9 km/h (4 Bft) 97,83 %
16.11.2015 06:48 12,4 C 12,2 C 10,6 C 82 % 0 lf 1013,3 hPa 0,0 l/m 0 min 0 min 0 W/m 20,9 km/h (4 Bft) 95,74 %
16.11.2015 06:50 12,4 C 12,2 C 10,6 C 82 % 0 lf 1013,3 hPa 0,0 l/m 0 min 0 min 0 W/m 18,8 km/h (3 Bft) 95,74 %
16.11.2015 06:52 12,3 C 12,2 C 10,6 C 82 % 0 lf 1013,3 hPa 0,0 l/m 0 min 0 min 0 W/m 18,8 km/h (3 Bft) 97,87 %
16.11.2015 06:54 12,3 C 12,2 C 10,6 C 82 % 0 lf 1013,3 hPa 0,0 l/m 0 min 0 min 0 W/m 25,1 km/h (4 Bft) 97,87 %
16.11.2015 06:56 12,3 C 12,2 C 10,6 C 82 % 0 lf 1013,3 hPa 0,0 l/m 0 min 0 min 0 W/m 25,1 km/h (4 Bft) 97,83 %
16.11.2015 06:58 12,3 C 12,2 C 10,6 C 82 % 0 lf 1013,3 hPa 0,0 l/m 0 min 0 min 0 W/m 23,0 km/h (4 Bft) 97,87 %
16.11.2015 07:00 12,3 C 12,2 C 10,6 C 82 % 0 lf 1013,2 hPa 0,0 l/m 0 min 0 min 0 W/m 16,7 km/h (3 Bft) 93,62 %
16.11.2015 07:02 12,3 C 12,2 C 10,6 C 82 % 0 lf 1013,3 hPa 0,0 l/m 0 min 0 min 0 W/m 27,2 km/h (4 Bft) 91,49 %
16.11.2015 07:04 12,3 C 12,2 C 10,6 C 82 % 0 lf 1013,2 hPa 0,0 l/m 0 min 0 min 0 W/m 18,8 km/h (3 Bft) 95,74 %
16.11.2015 07:06 12,3 C 12,2 C 10,6 C 82 % 0 lf 1013,2 hPa 0,0 l/m 0 min 0 min 0 W/m 20,9 km/h (4 Bft) 97,87 %
16.11.2015 07:08 12,2 C 12,2 C 10,6 C 82 % 0 lf 1013,3 hPa 0,0 l/m 0 min 0 min 0 W/m 29,3 km/h (5 Bft) 97,83 %
16.11.2015 07:10 12,2 C 12,2 C 10,6 C 82 % 0 lf 1013,3 hPa 0,0 l/m 0 min 0 min 0 W/m 31,4 km/h (5 Bft) 95,74 %
16.11.2015 07:12 12,2 C 12,2 C 10,6 C 82 % 0 lf 1013,3 hPa 0,0 l/m 0 min 0 min 0 W/m 29,3 km/h (5 Bft) 97,87 %
16.11.2015 07:14 12,2 C 12,2 C 10,6 C 82 % 0 lf 1013,1 hPa 0,0 l/m 0 min 0 min 0 W/m 23,0 km/h (4 Bft) 95,74 %
16.11.2015 07:16 12,2 C 12,2 C 10,6 C 82 % 0 lf 1013,1 hPa 0,0 l/m 0 min 0 min 0 W/m 33,5 km/h (5 Bft) 95,74 %
16.11.2015 07:18 12,2 C 12,2 C 10,6 C 82 % 0 lf 1013,2 hPa 0,0 l/m 0 min 0 min 0 W/m 29,3 km/h (5 Bft) 97,87 %
16.11.2015 07:20 12,2 C 12,2 C 10,6 C 82 % 0 lf 1013,1 hPa 0,0 l/m 0 min 0 min 0 W/m 27,2 km/h (4 Bft) 95,74 %
16.11.2015 07:22 12,2 C 12,2 C 10,6 C 82 % 0 lf 1013,1 hPa 0,0 l/m 0 min 0 min 0 W/m 23,0 km/h (4 Bft) 95,65 %
16.11.2015 07:24 12,2 C 12,2 C 10,6 C 82 % 0 lf 1013,1 hPa 0,0 l/m 0 min 0 min 0 W/m 29,3 km/h (5 Bft) 95,74 %
16.11.2015 07:26 12,2 C 12,2 C 10,6 C 82 % 0 lf 1013,1 hPa 0,0 l/m 0 min 0 min 0 W/m 29,3 km/h (5 Bft) 95,74 %
16.11.2015 07:28 12,1 C 12,2 C 10,6 C 82 % 0 lf 1013,1 hPa 0,0 l/m 0 min 0 min 0 W/m 23,0 km/h (4 Bft) 95,74 %
16.11.2015 07:30 12,1 C 12,2 C 10,6 C 82 % 0 lf 1013,0 hPa 0,0 l/m 0 min 0 min 0 W/m 23,0 km/h (4 Bft) 97,87 %
16.11.2015 07:32 12,1 C 12,2 C 10,6 C 82 % 0 lf 1013,0 hPa 0,0 l/m 0 min 0 min 0 W/m 25,1 km/h (4 Bft) 95,65 %
16.11.2015 07:34 12,1 C 12,2 C 10,6 C 82 % 0 lf 1013,0 hPa 0,0 l/m 0 min 0 min 0 W/m 27,2 km/h (4 Bft) 95,74 %
16.11.2015 07:36 12,1 C 12,2 C 10,6 C 82 % 0 lf 1013,0 hPa 0,0 l/m 0 min 0 min 0 W/m 39,7 km/h (6 Bft) 95,74 %
16.11.2015 07:38 12,1 C 12,2 C 10,6 C 82 % 0 lf 1013,0 hPa 0,0 l/m 0 min 0 min 0 W/m 25,1 km/h (4 Bft) 95,74 %
16.11.2015 07:40 12,1 C 12,2 C 10,6 C 82 % 0 lf 1013,0 hPa 0,0 l/m 0 min 0 min 0 W/m 18,8 km/h (3 Bft) 97,87 %
16.11.2015 07:42 12,1 C 12,2 C 10,6 C 82 % 0 lf 1013,1 hPa 0,0 l/m 0 min 0 min 0 W/m 27,2 km/h (4 Bft) 97,87 %
16.11.2015 07:44 12,0 C 12,2 C 10,6 C 81 % 0 lf 1013,1 hPa 0,0 l/m 0 min 0 min 0 W/m 27,2 km/h (4 Bft) 95,65 %
16.11.2015 07:46 12,0 C 12,2 C 10,6 C 81 % 0 lf 1012,9 hPa 0,0 l/m 0 min 0 min 0 W/m 29,3 km/h (5 Bft) 95,74 %
16.11.2015 07:48 12,0 C 12,2 C 10,6 C 81 % 0 lf 1013,0 hPa 0,0 l/m 0 min 0 min 0 W/m 29,3 km/h (5 Bft) 95,74 %
16.11.2015 07:50 12,0 C 12,2 C 10,6 C 81 % 0 lf 1013,0 hPa 0,0 l/m 0 min 0 min 0 W/m 31,4 km/h (5 Bft) 97,87 %
16.11.2015 07:52 12,0 C 12,2 C 10,6 C 81 % 0 lf 1013,0 hPa 0,0 l/m 0 min 0 min 0 W/m 29,3 km/h (5 Bft) 87,23 %
16.11.2015 07:54 12,0 C 12,2 C 10,6 C 81 % 0 lf 1013,0 hPa 0,0 l/m 0 min 0 min 0 W/m 31,4 km/h (5 Bft) 97,87 %
16.11.2015 07:56 12,0 C 12,2 C 10,6 C 81 % 0 lf 1013,0 hPa 0,0 l/m 0 min 0 min 2 W/m 20,9 km/h (4 Bft) 95,65 %
16.11.2015 07:58 12,0 C 12,2 C 10,6 C 81 % 0 lf 1012,9 hPa 0,0 l/m 0 min 0 min 5 W/m 23,0 km/h (4 Bft) 97,87 %
16.11.2015 08:00 12,0 C 12,2 C 10,6 C 81 % 0 lf 1012,9 hPa 0,0 l/m 0 min 0 min 6 W/m 29,3 km/h (5 Bft) 91,49 %
16.11.2015 08:02 11,9 C 12,2 C 10,6 C 81 % 0 lf 1012,9 hPa 0,0 l/m 0 min 0 min 7 W/m 33,5 km/h (5 Bft) 97,87 %
16.11.2015 08:04 11,9 C 12,2 C 10,6 C 81 % 0 lf 1012,9 hPa 0,0 l/m 0 min 0 min 8 W/m 29,3 km/h (5 Bft) 97,87 %
16.11.2015 08:06 11,9 C 11,7 C 10,0 C 81 % 0 lf 1012,9 hPa 0,0 l/m 0 min 0 min 9 W/m 14,6 km/h (3 Bft) 93,62 %
16.11.2015 08:08 11,9 C 11,7 C 10,6 C 81 % 0 lf 1012,9 hPa 0,0 l/m 0 min 0 min 9 W/m 25,1 km/h (4 Bft) 93,48 %
16.11.2015 08:10 11,9 C 11,7 C 10,6 C 81 % 0 lf 1013,0 hPa 0,0 l/m 0 min 0 min 11 W/m 18,8 km/h (3 Bft) 93,62 %
16.11.2015 08:12 11,9 C 11,7 C 10,6 C 81 % 0 lf 1013,0 hPa 0,0 l/m 0 min 0 min 10 W/m 33,5 km/h (5 Bft) 95,74 %
16.11.2015 08:14 11,9 C 12,2 C 10,6 C 81 % 0 lf 1013,0 hPa 0,0 l/m 0 min 0 min 10 W/m 33,5 km/h (5 Bft) 95,74 %
16.11.2015 08:16 11,9 C 12,2 C 10,6 C 81 % 0 lf 1013,0 hPa 0,0 l/m 0 min 0 min 12 W/m 23,0 km/h (4 Bft) 95,74 %
16.11.2015 08:18 11,9 C 12,2 C 10,6 C 81 % 0 lf 1013,1 hPa 0,0 l/m 0 min 0 min 14 W/m 16,7 km/h (3 Bft) 95,65 %
16.11.2015 08:20 11,9 C 12,2 C 10,6 C 82 % 0 lf 1013,1 hPa 0,0 l/m 0 min 0 min 14 W/m 37,7 km/h (5 Bft) 97,87 %
16.11.2015 08:22 11,9 C 12,2 C 10,6 C 82 % 0 lf 1013,1 hPa 0,0 l/m 0 min 0 min 16 W/m 25,1 km/h (4 Bft) 97,87 %
16.11.2015 08:24 11,9 C 12,2 C 10,6 C 82 % 0 lf 1013,2 hPa 0,0 l/m 0 min 0 min 16 W/m 18,8 km/h (3 Bft) 95,74 %
16.11.2015 08:26 11,9 C 12,2 C 10,6 C 82 % 0 lf 1013,2 hPa 0,0 l/m 0 min 0 min 16 W/m 20,9 km/h (4 Bft) 95,74 %
16.11.2015 08:28 11,8 C 12,2 C 10,6 C 82 % 0 lf 1013,4 hPa 0,0 l/m 0 min 0 min 18 W/m 29,3 km/h (5 Bft) 95,74 %
16.11.2015 08:30 11,8 C 12,2 C 10,6 C 82 % 0 lf 1013,4 hPa 0,0 l/m 0 min 0 min 19 W/m 25,1 km/h (4 Bft) 95,65 %
16.11.2015 08:32 11,8 C 12,2 C 10,6 C 82 % 0 lf 1013,4 hPa 0,0 l/m 0 min 0 min 21 W/m 31,4 km/h (5 Bft) 93,62 %
16.11.2015 08:34 11,8 C 12,2 C 10,6 C 81 % 0 lf 1013,5 hPa 0,0 l/m 0 min 0 min 20 W/m 31,4 km/h (5 Bft) 95,74 %
16.11.2015 08:36 11,8 C 12,2 C 10,6 C 81 % 0 lf 1013,5 hPa 0,0 l/m 0 min 0 min 19 W/m 29,3 km/h (5 Bft) 93,62 %
16.11.2015 08:38 11,8 C 12,2 C 10,6 C 81 % 0 lf 1013,5 hPa 0,0 l/m 0 min 0 min 19 W/m 29,3 km/h (5 Bft) 91,49 %
16.11.2015 08:40 11,8 C 12,2 C 10,6 C 81 % 0 lf 1013,4 hPa 0,0 l/m 0 min 0 min 20 W/m 29,3 km/h (5 Bft) 95,74 %
16.11.2015 08:42 11,8 C 12,2 C 10,6 C 81 % 0 lf 1013,6 hPa 0,0 l/m 0 min 0 min 23 W/m 31,4 km/h (5 Bft) 95,65 %
16.11.2015 08:44 11,8 C 12,2 C 10,6 C 81 % 0 lf 1013,6 hPa 0,0 l/m 0 min 0 min 23 W/m 27,2 km/h (4 Bft) 97,87 %
16.11.2015 08:46 11,8 C 12,2 C 10,6 C 81 % 0 lf 1013,6 hPa 0,0 l/m 0 min 0 min 21 W/m 20,9 km/h (4 Bft) 97,87 %
16.11.2015 08:48 11,8 C 12,2 C 10,6 C 81 % 0 lf 1013,5 hPa 0,0 l/m 0 min 0 min 20 W/m 23,0 km/h (4 Bft) 97,87 %
16.11.2015 08:50 11,9 C 12,2 C 10,6 C 81 % 0 lf 1013,6 hPa 0,0 l/m 0 min 0 min 22 W/m 25,1 km/h (4 Bft) 93,62 %
16.11.2015 08:52 11,9 C 12,2 C 10,6 C 81 % 0 lf 1013,6 hPa 0,0 l/m 0 min 0 min 23 W/m 16,7 km/h (3 Bft) 97,87 %
16.11.2015 08:54 11,9 C 12,2 C 10,6 C 82 % 0 lf 1013,6 hPa 0,0 l/m 0 min 0 min 23 W/m 20,9 km/h (4 Bft) 93,48 %
16.11.2015 08:56 11,9 C 12,2 C 10,6 C 82 % 0 lf 1013,6 hPa 0,0 l/m 0 min 0 min 25 W/m 18,8 km/h (3 Bft) 95,74 %
16.11.2015 08:58 11,9 C 12,2 C 10,6 C 82 % 0 lf 1013,6 hPa 0,0 l/m 0 min 0 min 26 W/m 18,8 km/h (3 Bft) 97,87 %
16.11.2015 09:00 11,9 C 12,2 C 10,6 C 82 % 0 lf 1013,6 hPa 0,0 l/m 0 min 0 min 29 W/m 20,9 km/h (4 Bft) 97,87 %
16.11.2015 09:02 11,9 C 12,2 C 10,6 C 82 % 0 lf 1013,6 hPa 0,0 l/m 0 min 0 min 30 W/m 23,0 km/h (4 Bft) 95,74 %
16.11.2015 09:04 11,9 C 12,2 C 10,6 C 82 % 0 lf 1013,6 hPa 0,0 l/m 0 min 0 min 31 W/m 27,2 km/h (4 Bft) 97,87 %
16.11.2015 09:06 11,9 C 12,2 C 10,6 C 82 % 0 lf 1013,5 hPa 0,0 l/m 0 min 0 min 37 W/m 25,1 km/h (4 Bft) 97,83 %
16.11.2015 09:08 11,9 C 12,2 C 10,6 C 83 % 0 lf 1013,5 hPa 0,0 l/m 0 min 0 min 38 W/m 18,8 km/h (3 Bft) 95,74 %
16.11.2015 09:10 11,9 C 12,2 C 10,6 C 83 % 0 lf 1013,5 hPa 0,0 l/m 0 min 0 min 38 W/m 20,9 km/h (4 Bft) 97,87 %
16.11.2015 09:12 11,9 C 12,2 C 10,6 C 82 % 0 lf 1013,4 hPa 0,0 l/m 0 min 0 min 40 W/m 31,4 km/h (5 Bft) 95,74 %
16.11.2015 09:14 11,9 C 12,2 C 10,6 C 82 % 0 lf 1013,3 hPa 0,0 l/m 0 min 0 min 54 W/m 31,4 km/h (5 Bft) 97,87 %
16.11.2015 09:16 11,9 C 12,8 C 10,6 C 82 % 0 lf 1013,2 hPa 0,0 l/m 0 min 0 min 63 W/m 27,2 km/h (4 Bft) 95,74 %
16.11.2015 09:18 11,9 C 12,8 C 11,1 C 82 % 0 lf 1013,2 hPa 0,0 l/m 0 min 0 min 66 W/m 29,3 km/h (5 Bft) 93,48 %
16.11.2015 09:20 11,9 C 12,8 C 11,1 C 82 % 0 lf 1013,4 hPa 0,0 l/m 0 min 0 min 63 W/m 27,2 km/h (4 Bft) 100,00 %
16.11.2015 09:22 11,9 C 12,8 C 11,1 C 82 % 0 lf 1013,4 hPa 0,0 l/m 0 min 0 min 52 W/m 27,2 km/h (4 Bft) 95,74 %
16.11.2015 09:24 11,9 C 12,8 C 11,1 C 82 % 0 lf 1013,3 hPa 0,0 l/m 0 min 0 min 54 W/m 33,5 km/h (5 Bft) 95,74 %
16.11.2015 09:26 11,9 C 12,8 C 11,1 C 81 % 0 lf 1013,4 hPa 0,0 l/m 0 min 0 min 57 W/m 20,9 km/h (4 Bft) 95,74 %
16.11.2015 09:28 12,0 C 12,8 C 11,1 C 81 % 0 lf 1013,5 hPa 0,0 l/m 0 min 0 min 63 W/m 25,1 km/h (4 Bft) 97,83 %
16.11.2015 09:30 12,0 C 12,8 C 11,1 C 81 % 0 lf 1013,5 hPa 0,0 l/m 0 min 0 min 64 W/m 31,4 km/h (5 Bft) 95,74 %
16.11.2015 09:32 12,0 C 12,8 C 11,1 C 81 % 0 lf 1013,4 hPa 0,0 l/m 0 min 0 min 68 W/m 20,9 km/h (4 Bft) 97,87 %
16.11.2015 09:34 12,0 C 12,8 C 11,1 C 81 % 0 lf 1013,5 hPa 0,0 l/m 0 min 0 min 84 W/m 25,1 km/h (4 Bft) 93,62 %
16.11.2015 09:36 12,1 C 12,8 C 11,1 C 81 % 0 lf 1013,5 hPa 0,0 l/m 0 min 0 min 79 W/m 20,9 km/h (4 Bft) 97,87 %
16.11.2015 09:38 12,1 C 12,8 C 11,1 C 81 % 0 lf 1013,5 hPa 0,0 l/m 0 min 0 min 74 W/m 29,3 km/h (5 Bft) 95,74 %
16.11.2015 09:40 12,1 C 12,8 C 11,1 C 81 % 0 lf 1013,4 hPa 0,0 l/m 0 min 0 min 85 W/m 39,7 km/h (6 Bft) 95,65 %
16.11.2015 09:42 12,1 C 12,8 C 11,1 C 81 % 0 lf 1013,5 hPa 0,0 l/m 0 min 0 min 87 W/m 31,4 km/h (5 Bft) 97,87 %
16.11.2015 09:44 12,1 C 13,3 C 11,1 C 81 % 0 lf 1013,4 hPa 0,0 l/m 0 min 0 min 102 W/m 25,1 km/h (4 Bft) 97,87 %
16.11.2015 09:46 12,2 C 13,3 C 11,7 C 81 % 0 lf 1013,4 hPa 0,0 l/m 2 min 0 min 124 W/m 25,1 km/h (4 Bft) 93,62 %
16.11.2015 09:48 12,2 C 13,3 C 11,7 C 80 % 0 lf 1013,4 hPa 0,0 l/m 2 min 0 min 116 W/m 37,7 km/h (5 Bft) 95,74 %
16.11.2015 09:50 12,2 C 13,3 C 11,7 C 80 % 0 lf 1013,5 hPa 0,0 l/m 0 min 0 min 90 W/m 33,5 km/h (5 Bft) 97,87 %
16.11.2015 09:52 12,2 C 12,8 C 11,7 C 80 % 0 lf 1013,5 hPa 0,0 l/m 0 min 0 min 77 W/m 29,3 km/h (5 Bft) 97,83 %
16.11.2015 09:54 12,2 C 12,8 C 11,1 C 80 % 0 lf 1013,4 hPa 0,0 l/m 0 min 0 min 55 W/m 27,2 km/h (4 Bft) 95,74 %
16.11.2015 09:56 12,2 C 12,8 C 11,1 C 80 % 0 lf 1013,5 hPa 0,0 l/m 0 min 0 min 48 W/m 33,5 km/h (5 Bft) 91,49 %
16.11.2015 09:58 12,2 C 12,8 C 11,1 C 80 % 0 lf 1013,6 hPa 0,0 l/m 0 min 0 min 45 W/m 33,5 km/h (5 Bft) 95,74 %
16.11.2015 10:00 12,2 C 12,8 C 11,1 C 80 % 0 lf 1013,5 hPa 0,0 l/m 0 min 0 min 49 W/m 23,0 km/h (4 Bft) 97,87 %
16.11.2015 10:02 12,2 C 12,8 C 11,1 C 80 % 0 lf 1013,6 hPa 0,0 l/m 0 min 0 min 59 W/m 33,5 km/h (5 Bft) 95,74 %
16.11.2015 10:04 12,2 C 12,8 C 11,1 C 80 % 0 lf 1013,5 hPa 0,0 l/m 0 min 0 min 67 W/m 43,9 km/h (6 Bft) 95,65 %
16.11.2015 10:06 12,3 C 12,8 C 11,1 C 80 % 0 lf 1013,4 hPa 0,0 l/m 0 min 0 min 77 W/m 39,7 km/h (6 Bft) 93,62 %
16.11.2015 10:08 12,3 C 12,8 C 11,1 C 80 % 0 lf 1013,5 hPa 0,0 l/m 0 min 0 min 86 W/m 27,2 km/h (4 Bft) 89,36 %
16.11.2015 10:10 12,3 C 12,8 C 11,1 C 80 % 0 lf 1013,5 hPa 0,0 l/m 0 min 0 min 70 W/m 18,8 km/h (3 Bft) 93,62 %
16.11.2015 10:12 12,3 C 12,8 C 11,7 C 80 % 0 lf 1013,5 hPa 0,0 l/m 0 min 0 min 70 W/m 25,1 km/h (4 Bft) 95,74 %
16.11.2015 10:14 12,3 C 12,8 C 11,7 C 80 % 0 lf 1013,6 hPa 0,0 l/m 0 min 0 min 75 W/m 27,2 km/h (4 Bft) 97,87 %
16.11.2015 10:16 12,3 C 12,8 C 11,1 C 80 % 0 lf 1013,5 hPa 0,0 l/m 0 min 0 min 62 W/m 27,2 km/h (4 Bft) 97,83 %
16.11.2015 10:18 12,3 C 12,8 C 11,1 C 80 % 0 lf 1013,6 hPa 0,0 l/m 0 min 0 min 54 W/m 27,2 km/h (4 Bft) 97,87 %
16.11.2015 10:20 12,3 C 12,8 C 11,1 C 80 % 0 lf 1013,6 hPa 0,0 l/m 0 min 0 min 41 W/m 33,5 km/h (5 Bft) 97,87 %
16.11.2015 10:22 12,3 C 12,8 C 11,1 C 80 % 0 lf 1013,6 hPa 0,0 l/m 0 min 0 min 36 W/m 23,0 km/h (4 Bft) 95,74 %
16.11.2015 10:24 12,3 C 12,8 C 11,1 C 80 % 0 lf 1013,7 hPa 0,0 l/m 0 min 0 min 40 W/m 41,8 km/h (6 Bft) 95,74 %
16.11.2015 10:26 12,3 C 12,8 C 11,1 C 80 % 0 lf 1013,6 hPa 0,0 l/m 0 min 0 min 52 W/m 39,7 km/h (6 Bft) 100,00 %
16.11.2015 10:28 12,3 C 12,8 C 11,1 C 80 % 0 lf 1013,7 hPa 0,0 l/m 0 min 0 min 54 W/m 31,4 km/h (5 Bft) 95,65 %
16.11.2015 10:30 12,3 C 12,8 C 11,1 C 80 % 0 lf 1013,6 hPa 0,0 l/m 0 min 0 min 57 W/m 37,7 km/h (5 Bft) 95,74 %
16.11.2015 10:32 12,3 C 12,8 C 11,1 C 80 % 0 lf 1013,7 hPa 0,0 l/m 0 min 0 min 61 W/m 37,7 km/h (5 Bft) 95,74 %
16.11.2015 10:34 12,3 C 12,8 C 11,1 C 80 % 0 lf 1013,7 hPa 0,0 l/m 0 min 0 min 64 W/m 29,3 km/h (5 Bft) 97,87 %
16.11.2015 10:36 12,3 C 12,8 C 11,1 C 81 % 0 lf 1013,7 hPa 0,0 l/m 0 min 0 min 70 W/m 29,3 km/h (5 Bft) 95,74 %
16.11.2015 10:38 12,3 C 12,8 C 11,1 C 81 % 0 lf 1013,7 hPa 0,0 l/m 0 min 0 min 73 W/m 46,0 km/h (6 Bft) 100,00 %
16.11.2015 10:40 12,3 C 12,8 C 11,7 C 81 % 0 lf 1013,7 hPa 0,0 l/m 0 min 0 min 77 W/m 33,5 km/h (5 Bft) 100,00 %
16.11.2015 10:42 12,3 C 12,8 C 11,7 C 81 % 0 lf 1013,7 hPa 0,0 l/m 0 min 0 min 73 W/m 35,6 km/h (5 Bft) 100,00 %
16.11.2015 10:44 12,3 C 12,8 C 11,1 C 81 % 0 lf 1013,6 hPa 0,0 l/m 0 min 0 min 68 W/m 39,7 km/h (6 Bft) 100,00 %
16.11.2015 10:46 12,3 C 12,8 C 11,1 C 81 % 0 lf 1013,6 hPa 0,0 l/m 0 min 0 min 66 W/m 31,4 km/h (5 Bft) 95,74 %
16.11.2015 10:48 12,4 C 12,8 C 11,1 C 81 % 0 lf 1013,8 hPa 0,0 l/m 0 min 0 min 71 W/m 29,3 km/h (5 Bft) 97,87 %
16.11.2015 10:50 12,4 C 12,8 C 11,7 C 81 % 0 lf 1013,6 hPa 0,0 l/m 0 min 0 min 80 W/m 37,7 km/h (5 Bft) 100,00 %
16.11.2015 10:52 12,4 C 12,8 C 11,7 C 81 % 0 lf 1013,7 hPa 0,0 l/m 0 min 0 min 78 W/m 31,4 km/h (5 Bft) 100,00 %
16.11.2015 10:54 12,4 C 12,8 C 11,7 C 81 % 0 lf 1013,7 hPa 0,0 l/m 0 min 0 min 68 W/m 37,7 km/h (5 Bft) 100,00 %
16.11.2015 10:56 12,4 C 12,8 C 11,7 C 81 % 0 lf 1013,7 hPa 0,0 l/m 0 min 0 min 66 W/m 37,7 km/h (5 Bft) 100,00 %
16.11.2015 10:58 12,4 C 12,8 C 11,7 C 81 % 0 lf 1013,7 hPa 0,0 l/m 0 min 0 min 69 W/m 39,7 km/h (6 Bft) 97,87 %
16.11.2015 11:00 12,4 C 13,3 C 11,7 C 81 % 0 lf 1013,7 hPa 0,0 l/m 0 min 0 min 97 W/m 31,4 km/h (5 Bft) 100,00 %
16.11.2015 11:02 12,4 C 13,3 C 11,7 C 81 % 0 lf 1013,7 hPa 0,0 l/m 0 min 0 min 100 W/m 33,5 km/h (5 Bft) 95,65 %
16.11.2015 11:04 12,4 C 13,3 C 11,7 C 81 % 0 lf 1013,7 hPa 0,0 l/m 0 min 0 min 113 W/m 43,9 km/h (6 Bft) 97,87 %
16.11.2015 11:06 12,4 C 13,3 C 11,7 C 81 % 0 lf 1013,6 hPa 0,0 l/m 0 min 0 min 126 W/m 35,6 km/h (5 Bft) 95,74 %
16.11.2015 11:08 12,4 C 13,3 C 11,7 C 81 % 0 lf 1013,5 hPa 0,0 l/m 0 min 0 min 136 W/m 31,4 km/h (5 Bft) 97,87 %
16.11.2015 11:10 12,5 C 13,3 C 11,7 C 81 % 0 lf 1013,5 hPa 0,0 l/m 0 min 0 min 134 W/m 29,3 km/h (5 Bft) 97,87 %
16.11.2015 11:12 12,5 C 13,3 C 11,7 C 81 % 0 lf 1013,5 hPa 0,0 l/m 0 min 0 min 116 W/m 33,5 km/h (5 Bft) 97,87 %
16.11.2015 11:14 12,5 C 13,3 C 11,7 C 81 % 0 lf 1013,6 hPa 0,0 l/m 0 min 0 min 101 W/m 16,7 km/h (3 Bft) 95,65 %
16.11.2015 11:16 12,6 C 13,3 C 11,7 C 81 % 0 lf 1013,6 hPa 0,0 l/m 0 min 0 min 90 W/m 18,8 km/h (3 Bft) 97,87 %
16.11.2015 11:18 12,6 C 13,3 C 11,7 C 81 % 0 lf 1013,4 hPa 0,0 l/m 0 min 0 min 101 W/m 35,6 km/h (5 Bft) 97,87 %
16.11.2015 11:20 12,6 C 13,3 C 11,7 C 81 % 0 lf 1013,4 hPa 0,0 l/m 0 min 0 min 119 W/m 29,3 km/h (5 Bft) 97,87 %
16.11.2015 11:22 12,6 C 13,3 C 11,7 C 81 % 0 lf 1013,4 hPa 0,0 l/m 0 min 0 min 114 W/m 25,1 km/h (4 Bft) 95,74 %
16.11.2015 11:24 12,6 C 13,3 C 11,7 C 81 % 0 lf 1013,4 hPa 0,0 l/m 0 min 0 min 110 W/m 39,7 km/h (6 Bft) 93,62 %
16.11.2015 11:26 12,6 C 13,3 C 11,7 C 82 % 0 lf 1013,4 hPa 0,0 l/m 0 min 0 min 109 W/m 37,7 km/h (5 Bft) 95,65 %
16.11.2015 11:28 12,7 C 13,3 C 11,7 C 82 % 0 lf 1013,4 hPa 0,0 l/m 0 min 0 min 119 W/m 33,5 km/h (5 Bft) 95,74 %
16.11.2015 11:30 12,7 C 13,3 C 11,7 C 82 % 0 lf 1013,3 hPa 0,0 l/m 0 min 0 min 99 W/m 20,9 km/h (4 Bft) 95,74 %
16.11.2015 11:32 12,7 C 13,3 C 12,2 C 82 % 0 lf 1013,3 hPa 0,0 l/m 0 min 0 min 132 W/m 33,5 km/h (5 Bft) 93,62 %
16.11.2015 11:34 12,7 C 13,9 C 12,2 C 82 % 0 lf 1013,2 hPa 0,0 l/m 2 min 0 min 184 W/m 37,7 km/h (5 Bft) 93,62 %
16.11.2015 11:36 12,7 C 13,9 C 12,2 C 82 % 0 lf 1013,2 hPa 0,0 l/m 2 min 0 min 184 W/m 31,4 km/h (5 Bft) 93,62 %
16.11.2015 11:38 12,8 C 13,9 C 12,2 C 82 % 0 lf 1013,2 hPa 0,0 l/m 0 min 0 min 141 W/m 31,4 km/h (5 Bft) 93,48 %
16.11.2015 11:40 12,8 C 13,9 C 12,2 C 82 % 0 lf 1013,2 hPa 0,0 l/m 0 min 0 min 128 W/m 37,7 km/h (5 Bft) 95,74 %
16.11.2015 11:42 12,8 C 13,9 C 12,2 C 82 % 0 lf 1013,2 hPa 0,0 l/m 0 min 0 min 147 W/m 31,4 km/h (5 Bft) 89,36 %
16.11.2015 11:44 12,8 C 13,9 C 12,2 C 82 % 0 lf 1013,2 hPa 0,0 l/m 0 min 0 min 156 W/m 27,2 km/h (4 Bft) 95,74 %
16.11.2015 11:46 12,9 C 13,9 C 12,2 C 82 % 0 lf 1013,2 hPa 0,0 l/m 0 min 0 min 144 W/m 29,3 km/h (5 Bft) 91,49 %
16.11.2015 11:48 12,9 C 13,9 C 12,2 C 82 % 0 lf 1013,3 hPa 0,0 l/m 0 min 0 min 120 W/m 23,0 km/h (4 Bft) 60,87 %
16.11.2015 11:50 12,9 C 13,9 C 12,2 C 82 % 0 lf 1013,2 hPa 0,0 l/m 0 min 0 min 123 W/m 18,8 km/h (3 Bft) 76,19 %
16.11.2015 11:52 12,9 C 13,9 C 12,2 C 82 % 0 lf 1013,2 hPa 0,0 l/m 0 min 0 min 138 W/m 23,0 km/h (4 Bft) 95,74 %
16.11.2015 11:54 12,9 C 13,9 C 12,2 C 82 % 0 lf 1013,4 hPa 0,0 l/m 0 min 0 min 136 W/m 31,4 km/h (5 Bft) 93,62 %
16.11.2015 11:56 12,9 C 13,9 C 12,2 C 82 % 0 lf 1013,4 hPa 0,0 l/m 0 min 0 min 113 W/m 27,2 km/h (4 Bft) 91,49 %
16.11.2015 11:58 12,9 C 13,9 C 12,2 C 82 % 0 lf 1013,4 hPa 0,0 l/m 0 min 0 min 100 W/m 20,9 km/h (4 Bft) 93,62 %
16.11.2015 12:00 13,0 C 13,9 C 12,2 C 82 % 0 lf 1013,4 hPa 0,0 l/m 0 min 0 min 77 W/m 31,4 km/h (5 Bft) 95,74 %
16.11.2015 12:02 13,0 C 13,9 C 12,2 C 82 % 0 lf 1013,4 hPa 0,0 l/m 0 min 0 min 85 W/m 23,0 km/h (4 Bft) 97,83 %
16.11.2015 12:04 13,0 C 13,9 C 12,2 C 82 % 0 lf 1013,4 hPa 0,0 l/m 0 min 0 min 109 W/m 27,2 km/h (4 Bft) 89,36 %
16.11.2015 12:06 13,0 C 13,9 C 12,2 C 82 % 0 lf 1013,3 hPa 0,0 l/m 0 min 0 min 97 W/m 31,4 km/h (5 Bft) 93,62 %
16.11.2015 12:08 13,0 C 13,9 C 12,2 C 82 % 0 lf 1013,2 hPa 0,0 l/m 0 min 0 min 103 W/m 33,5 km/h (5 Bft) 95,74 %
16.11.2015 12:10 13,0 C 13,9 C 12,2 C 82 % 0 lf 1013,2 hPa 0,0 l/m 0 min 0 min 138 W/m 33,5 km/h (5 Bft) 95,74 %
16.11.2015 12:12 13,1 C 13,9 C 12,8 C 82 % 0 lf 1013,1 hPa 0,0 l/m 2 min 0 min 181 W/m 31,4 km/h (5 Bft) 91,30 %
16.11.2015 12:14 13,1 C 13,9 C 12,8 C 82 % 0 lf 1013,1 hPa 0,0 l/m 0 min 0 min 142 W/m 20,9 km/h (4 Bft) 97,87 %
16.11.2015 12:16 13,1 C 13,9 C 12,8 C 82 % 0 lf 1013,2 hPa 0,0 l/m 0 min 0 min 136 W/m 31,4 km/h (5 Bft) 97,87 %
16.11.2015 12:18 13,1 C 13,9 C 12,8 C 82 % 0 lf 1013,2 hPa 0,0 l/m 0 min 0 min 129 W/m 27,2 km/h (4 Bft) 95,74 %
16.11.2015 12:20 13,1 C 13,9 C 12,8 C 82 % 0 lf 1013,1 hPa 0,0 l/m 0 min 0 min 145 W/m 37,7 km/h (5 Bft) 93,62 %
16.11.2015 12:22 13,2 C 13,9 C 12,2 C 82 % 0 lf 1013,1 hPa 0,0 l/m 0 min 0 min 128 W/m 25,1 km/h (4 Bft) 93,62 %
16.11.2015 12:24 13,2 C 13,9 C 12,2 C 82 % 0 lf 1013,1 hPa 0,0 l/m 0 min 0 min 119 W/m 33,5 km/h (5 Bft) 97,83 %
16.11.2015 12:26 13,2 C 13,9 C 12,2 C 82 % 0 lf 1013,1 hPa 0,0 l/m 0 min 0 min 130 W/m 31,4 km/h (5 Bft) 93,62 %
16.11.2015 12:28 13,2 C 14,4 C 12,2 C 82 % 0 lf 1013,1 hPa 0,0 l/m 0 min 0 min 143 W/m 29,3 km/h (5 Bft) 93,62 %
16.11.2015 12:30 13,2 C 13,9 C 12,2 C 82 % 0 lf 1013,2 hPa 0,0 l/m 0 min 0 min 122 W/m 33,5 km/h (5 Bft) 95,74 %
16.11.2015 12:32 13,2 C 13,9 C 12,2 C 82 % 0 lf 1013,1 hPa 0,0 l/m 0 min 0 min 122 W/m 37,7 km/h (5 Bft) 93,62 %
16.11.2015 12:34 13,2 C 13,9 C 12,2 C 82 % 0 lf 1013,1 hPa 0,0 l/m 0 min 0 min 111 W/m 35,6 km/h (5 Bft) 95,74 %
16.11.2015 12:36 13,2 C 13,9 C 12,2 C 82 % 0 lf 1013,1 hPa 0,0 l/m 0 min 0 min 107 W/m 43,9 km/h (6 Bft) 97,83 %
16.11.2015 12:38 13,2 C 13,9 C 12,2 C 82 % 0 lf 1013,1 hPa 0,0 l/m 0 min 0 min 127 W/m 33,5 km/h (5 Bft) 97,87 %
16.11.2015 12:40 13,2 C 13,9 C 12,2 C 82 % 0 lf 1013,0 hPa 0,0 l/m 0 min 0 min 139 W/m 27,2 km/h (4 Bft) 89,36 %
16.11.2015 12:42 13,2 C 14,4 C 12,2 C 82 % 0 lf 1013,0 hPa 0,0 l/m 0 min 0 min 152 W/m 33,5 km/h (5 Bft) 95,74 %
16.11.2015 12:44 13,2 C 14,4 C 12,2 C 82 % 0 lf 1013,0 hPa 0,0 l/m 0 min 0 min 128 W/m 31,4 km/h (5 Bft) 93,62 %
16.11.2015 12:46 13,2 C 13,9 C 12,2 C 82 % 0 lf 1013,0 hPa 0,0 l/m 0 min 0 min 105 W/m 39,7 km/h (6 Bft) 95,74 %
16.11.2015 12:48 13,2 C 13,9 C 12,2 C 82 % 0 lf 1013,0 hPa 0,0 l/m 0 min 0 min 105 W/m 35,6 km/h (5 Bft) 93,48 %
16.11.2015 12:50 13,2 C 13,9 C 12,2 C 82 % 0 lf 1012,9 hPa 0,0 l/m 0 min 0 min 128 W/m 25,1 km/h (4 Bft) 97,87 %
16.11.2015 12:52 13,2 C 13,9 C 12,2 C 82 % 0 lf 1013,0 hPa 0,0 l/m 0 min 0 min 117 W/m 25,1 km/h (4 Bft) 97,87 %
16.11.2015 12:54 13,2 C 13,9 C 12,2 C 82 % 0 lf 1013,0 hPa 0,0 l/m 0 min 0 min 97 W/m 41,8 km/h (6 Bft) 97,87 %
16.11.2015 12:56 13,2 C 13,9 C 12,2 C 83 % 0 lf 1013,1 hPa 0,0 l/m 0 min 0 min 83 W/m 29,3 km/h (5 Bft) 97,87 %
16.11.2015 12:58 13,1 C 13,3 C 12,2 C 83 % 0 lf 1013,0 hPa 0,0 l/m 0 min 0 min 88 W/m 29,3 km/h (5 Bft) 95,74 %
16.11.2015 13:00 13,1 C 13,9 C 12,2 C 83 % 0 lf 1013,0 hPa 0,0 l/m 0 min 0 min 104 W/m 29,3 km/h (5 Bft) 95,65 %
16.11.2015 13:02 13,1 C 13,9 C 12,2 C 83 % 0 lf 1013,0 hPa 0,0 l/m 0 min 0 min 109 W/m 39,7 km/h (6 Bft) 97,87 %
16.11.2015 13:04 13,1 C 13,3 C 12,2 C 83 % 0 lf 1013,0 hPa 0,0 l/m 0 min 0 min 109 W/m 31,4 km/h (5 Bft) 95,74 %
16.11.2015 13:06 13,1 C 13,3 C 12,2 C 83 % 0 lf 1013,0 hPa 0,0 l/m 0 min 0 min 114 W/m 16,7 km/h (3 Bft) 97,87 %
16.11.2015 13:08 13,1 C 13,9 C 12,2 C 84 % 0 lf 1013,0 hPa 0,0 l/m 0 min 0 min 116 W/m 27,2 km/h (4 Bft) 95,74 %
16.11.2015 13:10 13,1 C 13,9 C 12,2 C 84 % 1 lf 1013,0 hPa 0,0 l/m 0 min 0 min 125 W/m 25,1 km/h (4 Bft) 97,87 %
16.11.2015 13:12 13,1 C 13,9 C 12,2 C 84 % 0 lf 1013,0 hPa 0,0 l/m 0 min 0 min 127 W/m 31,4 km/h (5 Bft) 95,65 %
16.11.2015 13:14 13,1 C 13,9 C 12,2 C 84 % 0 lf 1013,0 hPa 0,0 l/m 0 min 0 min 137 W/m 25,1 km/h (4 Bft) 95,74 %
16.11.2015 13:16 13,0 C 13,9 C 12,2 C 84 % 0 lf 1013,0 hPa 0,0 l/m 0 min 0 min 139 W/m 27,2 km/h (4 Bft) 100,00 %
16.11.2015 13:18 13,0 C 13,9 C 12,2 C 84 % 0 lf 1012,9 hPa 0,0 l/m 0 min 0 min 142 W/m 25,1 km/h (4 Bft) 100,00 %
16.11.2015 13:20 13,0 C 13,9 C 12,2 C 84 % 0 lf 1012,9 hPa 0,0 l/m 0 min 0 min 118 W/m 20,9 km/h (4 Bft) 100,00 %
16.11.2015 13:22 13,0 C 13,9 C 12,2 C 84 % 0 lf 1012,9 hPa 0,0 l/m 0 min 0 min 95 W/m 23,0 km/h (4 Bft) 100,00 %
16.11.2015 13:24 13,0 C 13,9 C 12,2 C 84 % 0 lf 1013,0 hPa 0,0 l/m 0 min 0 min 75 W/m 20,9 km/h (4 Bft) 100,00 %
16.11.2015 13:26 13,0 C 13,3 C 12,2 C 84 % 0 lf 1012,9 hPa 0,0 l/m 0 min 0 min 75 W/m 23,0 km/h (4 Bft) 100,00 %
16.11.2015 13:28 13,0 C 13,3 C 11,7 C 84 % 0 lf 1012,9 hPa 0,0 l/m 0 min 0 min 85 W/m 33,5 km/h (5 Bft) 100,00 %
16.11.2015 13:30 12,9 C 13,3 C 11,7 C 85 % 0 lf 1012,9 hPa 0,0 l/m 0 min 0 min 74 W/m 31,4 km/h (5 Bft) 100,00 %
16.11.2015 13:32 12,9 C 12,8 C 11,7 C 84 % 0 lf 1013,0 hPa 0,0 l/m 0 min 0 min 70 W/m 33,5 km/h (5 Bft) 97,87 %
16.11.2015 13:34 12,9 C 12,8 C 11,7 C 85 % 0 lf 1012,9 hPa 0,0 l/m 0 min 0 min 74 W/m 23,0 km/h (4 Bft) 100,00 %
16.11.2015 13:36 12,9 C 12,8 C 11,7 C 85 % 0 lf 1012,9 hPa 0,0 l/m 0 min 0 min 75 W/m 27,2 km/h (4 Bft) 97,83 %
16.11.2015 13:38 12,9 C 12,8 C 11,7 C 85 % 0 lf 1012,9 hPa 0,0 l/m 0 min 0 min 68 W/m 27,2 km/h (4 Bft) 95,74 %
16.11.2015 13:40 12,8 C 12,8 C 11,7 C 85 % 0 lf 1013,0 hPa 0,0 l/m 0 min 0 min 59 W/m 39,7 km/h (6 Bft) 100,00 %
16.11.2015 13:42 12,8 C 12,8 C 11,7 C 86 % 0 lf 1013,0 hPa 0,0 l/m 0 min 0 min 52 W/m 37,7 km/h (5 Bft) 100,00 %
16.11.2015 13:44 12,7 C 12,8 C 11,1 C 86 % 1 lf 1012,9 hPa 0,0 l/m 0 min 0 min 55 W/m 27,2 km/h (4 Bft) 100,00 %
16.11.2015 13:46 12,7 C 12,8 C 11,1 C 86 % 1 lf 1012,8 hPa 0,0 l/m 0 min 0 min 70 W/m 29,3 km/h (5 Bft) 100,00 %
16.11.2015 13:48 12,7 C 12,2 C 11,1 C 87 % 1 lf 1012,9 hPa 0,0 l/m 0 min 0 min 75 W/m 25,1 km/h (4 Bft) 95,74 %
16.11.2015 13:50 12,6 C 12,2 C 11,1 C 87 % 4 lf 1012,8 hPa 0,0 l/m 0 min 0 min 83 W/m 27,2 km/h (4 Bft) 97,87 %
16.11.2015 13:52 12,6 C 12,2 C 10,6 C 87 % 4 lf 1012,8 hPa 0,0 l/m 0 min 0 min 92 W/m 31,4 km/h (5 Bft) 100,00 %
16.11.2015 13:54 12,5 C 12,2 C 10,6 C 88 % 6 lf 1012,8 hPa 0,0 l/m 0 min 0 min 94 W/m 29,3 km/h (5 Bft) 100,00 %
16.11.2015 13:56 12,5 C 12,2 C 10,6 C 88 % 7 lf 1012,8 hPa 0,0 l/m 0 min 0 min 97 W/m 29,3 km/h (5 Bft) 100,00 %
16.11.2015 13:58 12,4 C 12,2 C 10,6 C 89 % 4 lf 1012,7 hPa 0,0 l/m 0 min 0 min 105 W/m 27,2 km/h (4 Bft) 100,00 %
16.11.2015 14:00 12,4 C 12,2 C 10,6 C 89 % 2 lf 1012,8 hPa 0,0 l/m 0 min 0 min 97 W/m 27,2 km/h (4 Bft) 95,74 %
16.11.2015 14:02 12,4 C 12,2 C 10,6 C 89 % 1 lf 1012,7 hPa 0,0 l/m 0 min 0 min 81 W/m 27,2 km/h (4 Bft) 97,87 %
16.11.2015 14:04 12,3 C 12,2 C 10,6 C 89 % 0 lf 1012,8 hPa 0,0 l/m 0 min 0 min 78 W/m 29,3 km/h (5 Bft) 97,87 %
16.11.2015 14:06 12,3 C 12,2 C 11,1 C 89 % 0 lf 1012,8 hPa 0,0 l/m 0 min 0 min 76 W/m 23,0 km/h (4 Bft) 95,74 %
16.11.2015 14:08 12,3 C 12,2 C 11,1 C 90 % 0 lf 1012,8 hPa 0,0 l/m 0 min 0 min 66 W/m 23,0 km/h (4 Bft) 97,87 %
16.11.2015 14:10 12,2 C 12,2 C 11,1 C 90 % 0 lf 1012,9 hPa 0,0 l/m 0 min 0 min 48 W/m 29,3 km/h (5 Bft) 95,65 %
16.11.2015 14:12 12,2 C 12,2 C 11,1 C 90 % 0 lf 1012,8 hPa 0,0 l/m 0 min 0 min 47 W/m 18,8 km/h (3 Bft) 95,74 %
16.11.2015 14:14 12,2 C 12,2 C 11,1 C 90 % 0 lf 1012,7 hPa 0,0 l/m 0 min 0 min 55 W/m 27,2 km/h (4 Bft) 95,74 %
16.11.2015 14:16 12,2 C 12,2 C 11,1 C 90 % 0 lf 1012,8 hPa 0,0 l/m 0 min 0 min 46 W/m 25,1 km/h (4 Bft) 95,74 %
16.11.2015 14:18 12,1 C 12,2 C 11,1 C 90 % 0 lf 1012,7 hPa 0,0 l/m 0 min 0 min 39 W/m 37,7 km/h (5 Bft) 91,49 %
16.11.2015 14:20 12,1 C 12,2 C 11,1 C 90 % 0 lf 1012,8 hPa 0,0 l/m 0 min 0 min 48 W/m 35,6 km/h (5 Bft) 95,74 %
16.11.2015 14:22 12,1 C 12,2 C 11,1 C 90 % 0 lf 1012,8 hPa 0,0 l/m 0 min 0 min 54 W/m 23,0 km/h (4 Bft) 93,48 %
16.11.2015 14:24 12,1 C 12,2 C 11,1 C 90 % 0 lf 1012,8 hPa 0,0 l/m 0 min 0 min 58 W/m 29,3 km/h (5 Bft) 95,74 %
16.11.2015 14:26 12,1 C 12,2 C 11,1 C 90 % 0 lf 1012,8 hPa 0,0 l/m 0 min 0 min 63 W/m 27,2 km/h (4 Bft) 93,62 %
16.11.2015 14:28 12,1 C 12,2 C 11,1 C 90 % 0 lf 1012,8 hPa 0,0 l/m 0 min 0 min 72 W/m 14,6 km/h (3 Bft) 95,74 %
16.11.2015 14:30 12,1 C 12,8 C 11,1 C 91 % 0 lf 1012,7 hPa 0,0 l/m 0 min 0 min 71 W/m 23,0 km/h (4 Bft) 95,74 %
16.11.2015 14:32 12,1 C 12,2 C 11,1 C 91 % 0 lf 1012,8 hPa 0,0 l/m 0 min 0 min 56 W/m 33,5 km/h (5 Bft) 95,74 %
16.11.2015 14:34 12,1 C 12,2 C 11,1 C 91 % 0 lf 1012,7 hPa 0,0 l/m 0 min 0 min 43 W/m 27,2 km/h (4 Bft) 93,48 %
16.11.2015 14:36 12,1 C 12,2 C 11,1 C 91 % 0 lf 1012,8 hPa 0,0 l/m 0 min 0 min 38 W/m 23,0 km/h (4 Bft) 95,74 %
16.11.2015 14:38 12,1 C 12,2 C 11,1 C 91 % 0 lf 1012,7 hPa 0,0 l/m 0 min 0 min 43 W/m 29,3 km/h (5 Bft) 93,62 %
16.11.2015 14:40 12,1 C 12,2 C 11,1 C 91 % 0 lf 1012,7 hPa 0,0 l/m 0 min 0 min 39 W/m 39,7 km/h (6 Bft) 95,74 %
16.11.2015 14:42 12,1 C 12,2 C 11,1 C 91 % 0 lf 1012,7 hPa 0,0 l/m 0 min 0 min 33 W/m 31,4 km/h (5 Bft) 93,62 %
16.11.2015 14:44 12,0 C 12,2 C 11,1 C 91 % 1 lf 1012,6 hPa 0,0 l/m 0 min 0 min 32 W/m 33,5 km/h (5 Bft) 95,74 %
16.11.2015 14:46 12,0 C 12,2 C 11,1 C 91 % 0 lf 1012,6 hPa 0,0 l/m 0 min 0 min 42 W/m 41,8 km/h (6 Bft) 93,48 %
16.11.2015 14:48 12,0 C 12,2 C 11,1 C 91 % 0 lf 1012,6 hPa 0,0 l/m 0 min 0 min 53 W/m 29,3 km/h (5 Bft) 93,62 %
16.11.2015 14:50 12,0 C 12,2 C 11,1 C 91 % 0 lf 1012,6 hPa 0,0 l/m 0 min 0 min 44 W/m 16,7 km/h (3 Bft) 95,74 %
16.11.2015 14:52 12,0 C 12,2 C 11,1 C 91 % 0 lf 1012,6 hPa 0,0 l/m 0 min 0 min 30 W/m 27,2 km/h (4 Bft) 95,74 %
16.11.2015 14:54 12,0 C 12,2 C 10,6 C 91 % 0 lf 1012,7 hPa 0,0 l/m 0 min 0 min 26 W/m 23,0 km/h (4 Bft) 95,74 %
16.11.2015 14:57 12,0 C 12,2 C 10,6 C 91 % 0 lf 1012,7 hPa 0,0 l/m 0 min 2 min 22 W/m 27,2 km/h (4 Bft) 94,29 %
16.11.2015 14:58 12,0 C 12,2 C 10,6 C 91 % 0 lf 1012,7 hPa 0,0 l/m 0 min 0 min 21 W/m 16,7 km/h (3 Bft) 95,65 %
16.11.2015 15:00 11,9 C 12,2 C 10,6 C 91 % 0 lf 1012,7 hPa 0,0 l/m 0 min 0 min 22 W/m 16,7 km/h (3 Bft) 97,87 %
16.11.2015 15:02 11,9 C 12,2 C 10,6 C 91 % 0 lf 1012,7 hPa 0,0 l/m 0 min 0 min 23 W/m 27,2 km/h (4 Bft) 95,74 %
16.11.2015 15:04 11,9 C 11,7 C 10,6 C 91 % 0 lf 1012,7 hPa 0,0 l/m 0 min 0 min 20 W/m 29,3 km/h (5 Bft) 93,62 %
16.11.2015 15:06 11,9 C 11,7 C 10,6 C 91 % 0 lf 1012,7 hPa 0,0 l/m 0 min 0 min 21 W/m 23,0 km/h (4 Bft) 95,74 %
16.11.2015 15:08 11,9 C 11,7 C 10,6 C 91 % 0 lf 1012,8 hPa 0,0 l/m 0 min 0 min 24 W/m 27,2 km/h (4 Bft) 95,65 %
16.11.2015 15:10 11,9 C 12,2 C 10,6 C 91 % 0 lf 1012,7 hPa 0,0 l/m 0 min 0 min 29 W/m 35,6 km/h (5 Bft) 97,87 %
16.11.2015 15:12 11,9 C 12,2 C 10,6 C 92 % 3 lf 1012,7 hPa 0,0 l/m 0 min 2 min 25 W/m 25,1 km/h (4 Bft) 95,74 %
16.11.2015 15:14 11,9 C 11,7 C 10,6 C 92 % 4 lf 1012,7 hPa 0,0 l/m 0 min 2 min 19 W/m 35,6 km/h (5 Bft) 91,49 %
16.11.2015 15:16 11,8 C 11,7 C 10,6 C 92 % 5 lf 1012,7 hPa 0,0 l/m 0 min 2 min 22 W/m 31,4 km/h (5 Bft) 97,87 %
16.11.2015 15:18 11,8 C 11,7 C 10,0 C 92 % 15 lf 1012,6 hPa 0,0 l/m 0 min 2 min 25 W/m 29,3 km/h (5 Bft) 95,74 %
16.11.2015 15:20 11,8 C 11,7 C 10,0 C 92 % 15 lf 1012,7 hPa 0,0 l/m 0 min 2 min 31 W/m 43,9 km/h (6 Bft) 97,83 %
16.11.2015 15:22 11,8 C 11,7 C 10,0 C 92 % 15 lf 1012,7 hPa 0,0 l/m 0 min 2 min 35 W/m 23,0 km/h (4 Bft) 95,74 %
16.11.2015 15:24 11,8 C 11,1 C 10,0 C 92 % 15 lf 1012,7 hPa 0,0 l/m 0 min 2 min 33 W/m 27,2 km/h (4 Bft) 95,74 %
16.11.2015 15:26 11,8 C 11,1 C 10,0 C 92 % 15 lf 1012,7 hPa 0,0 l/m 0 min 2 min 29 W/m 29,3 km/h (5 Bft) 95,74 %
16.11.2015 15:28 11,8 C 11,7 C 10,0 C 92 % 15 lf 1012,7 hPa 0,0 l/m 0 min 0 min 26 W/m 18,8 km/h (3 Bft) 93,62 %
16.11.2015 15:30 11,8 C 11,7 C 10,0 C 92 % 15 lf 1012,6 hPa 0,0 l/m 0 min 2 min 30 W/m 23,0 km/h (4 Bft) 93,62 %
16.11.2015 15:32 11,8 C 11,7 C 10,0 C 92 % 15 lf 1012,6 hPa 0,0 l/m 0 min 2 min 38 W/m 25,1 km/h (4 Bft) 97,83 %
16.11.2015 15:34 11,8 C 11,7 C 10,0 C 92 % 15 lf 1012,5 hPa 0,0 l/m 0 min 2 min 52 W/m 20,9 km/h (4 Bft) 93,62 %
16.11.2015 15:36 11,8 C 11,7 C 10,0 C 93 % 15 lf 1012,5 hPa 0,0 l/m 0 min 2 min 66 W/m 20,9 km/h (4 Bft) 95,74 %
16.11.2015 15:37 11,8 C 11,7 C 10,6 C 93 % 15 lf 1012,4 hPa 0,0 l/m 0 min 0 min 66 W/m 14,6 km/h (3 Bft) 95,65 %
16.11.2015 15:40 11,8 C 11,7 C 10,6 C 93 % 15 lf 1012,4 hPa 0,0 l/m 0 min 2 min 55 W/m 31,4 km/h (5 Bft) 95,83 %
16.11.2015 15:42 11,8 C 11,7 C 10,0 C 93 % 15 lf 1012,4 hPa 0,0 l/m 0 min 2 min 41 W/m 37,7 km/h (5 Bft) 95,74 %
16.11.2015 15:44 11,8 C 11,7 C 10,0 C 93 % 15 lf 1012,4 hPa 0,0 l/m 0 min 2 min 32 W/m 35,6 km/h (5 Bft) 93,62 %
16.11.2015 15:46 11,8 C 11,7 C 10,0 C 93 % 14 lf 1012,5 hPa 0,0 l/m 0 min 2 min 30 W/m 25,1 km/h (4 Bft) 97,87 %
16.11.2015 15:48 11,8 C 11,7 C 10,0 C 93 % 14 lf 1012,3 hPa 0,0 l/m 0 min 0 min 29 W/m 16,7 km/h (3 Bft) 95,65 %
16.11.2015 15:50 11,8 C 11,7 C 10,0 C 93 % 13 lf 1012,3 hPa 0,0 l/m 0 min 0 min 26 W/m 20,9 km/h (4 Bft) 97,87 %
16.11.2015 15:52 11,8 C 11,7 C 10,0 C 93 % 13 lf 1012,3 hPa 0,0 l/m 0 min 2 min 25 W/m 25,1 km/h (4 Bft) 97,87 %
16.11.2015 15:54 11,7 C 11,7 C 10,0 C 93 % 12 lf 1012,4 hPa 0,0 l/m 0 min 0 min 20 W/m 33,5 km/h (5 Bft) 93,62 %
16.11.2015 15:56 11,7 C 11,7 C 10,0 C 93 % 10 lf 1012,3 hPa 0,0 l/m 0 min 0 min 14 W/m 23,0 km/h (4 Bft) 97,87 %
16.11.2015 15:58 11,7 C 11,7 C 10,0 C 93 % 8 lf 1012,4 hPa 0,0 l/m 0 min 2 min 14 W/m 41,8 km/h (6 Bft) 93,48 %
16.11.2015 16:00 11,7 C 11,7 C 10,0 C 94 % 6 lf 1012,3 hPa 0,0 l/m 0 min 0 min 13 W/m 29,3 km/h (5 Bft) 93,62 %
16.11.2015 16:02 11,7 C 11,7 C 10,0 C 94 % 4 lf 1012,3 hPa 0,0 l/m 0 min 0 min 14 W/m 31,4 km/h (5 Bft) 93,62 %
16.11.2015 16:04 11,7 C 11,7 C 10,0 C 94 % 3 lf 1012,2 hPa 0,0 l/m 0 min 2 min 19 W/m 23,0 km/h (4 Bft) 91,49 %
16.11.2015 16:06 11,7 C 11,7 C 10,0 C 94 % 2 lf 1012,2 hPa 0,0 l/m 0 min 0 min 18 W/m 29,3 km/h (5 Bft) 93,75 %
16.11.2015 16:08 11,7 C 11,7 C 10,0 C 94 % 1 lf 1012,2 hPa 0,0 l/m 0 min 0 min 16 W/m 23,0 km/h (4 Bft) 95,74 %
16.11.2015 16:10 11,7 C 11,7 C 10,0 C 94 % 3 lf 1012,2 hPa 0,0 l/m 0 min 0 min 15 W/m 23,0 km/h (4 Bft) 95,74 %
16.11.2015 16:12 11,7 C 11,7 C 10,0 C 94 % 3 lf 1012,2 hPa 0,0 l/m 0 min 2 min 15 W/m 27,2 km/h (4 Bft) 95,74 %
16.11.2015 16:14 11,7 C 11,7 C 10,0 C 94 % 3 lf 1012,1 hPa 0,0 l/m 0 min 2 min 14 W/m 25,1 km/h (4 Bft) 97,87 %
16.11.2015 16:16 11,7 C 11,7 C 10,0 C 94 % 2 lf 1012,1 hPa 0,0 l/m 0 min 2 min 14 W/m 18,8 km/h (3 Bft) 95,74 %
16.11.2015 16:18 11,7 C 11,7 C 10,0 C 94 % 2 lf 1012,0 hPa 0,0 l/m 0 min 0 min 12 W/m 27,2 km/h (4 Bft) 97,83 %
16.11.2015 16:20 11,7 C 11,7 C 10,0 C 94 % 1 lf 1012,0 hPa 0,0 l/m 0 min 2 min 11 W/m 33,5 km/h (5 Bft) 97,87 %
16.11.2015 16:22 11,7 C 11,7 C 10,0 C 94 % 1 lf 1012,0 hPa 0,0 l/m 0 min 0 min 11 W/m 27,2 km/h (4 Bft) 97,87 %
16.11.2015 16:24 11,7 C 11,7 C 10,0 C 94 % 0 lf 1011,9 hPa 0,0 l/m 0 min 2 min 10 W/m 25,1 km/h (4 Bft) 95,74 %
16.11.2015 16:26 11,7 C 11,7 C 10,0 C 94 % 0 lf 1012,0 hPa 0,0 l/m 0 min 2 min 9 W/m 23,0 km/h (4 Bft) 97,87 %
16.11.2015 16:28 11,7 C 11,7 C 10,0 C 94 % 0 lf 1012,0 hPa 0,0 l/m 0 min 2 min 7 W/m 20,9 km/h (4 Bft) 97,87 %
16.11.2015 16:30 11,7 C 11,7 C 10,0 C 94 % 0 lf 1012,0 hPa 0,0 l/m 0 min 2 min 7 W/m 16,7 km/h (3 Bft) 97,83 %
16.11.2015 16:32 11,7 C 11,7 C 10,0 C 94 % 1 lf 1012,0 hPa 0,0 l/m 0 min 0 min 7 W/m 33,5 km/h (5 Bft) 97,87 %
16.11.2015 16:34 11,7 C 11,7 C 10,0 C 94 % 1 lf 1012,0 hPa 0,0 l/m 0 min 2 min 7 W/m 33,5 km/h (5 Bft) 100,00 %
16.11.2015 16:36 11,7 C 11,7 C 10,0 C 94 % 1 lf 1012,0 hPa 0,0 l/m 0 min 2 min 5 W/m 37,7 km/h (5 Bft) 98,15 %
16.11.2015 16:38 11,7 C 11,7 C 10,0 C 94 % 3 lf 1012,0 hPa 0,0 l/m 0 min 2 min 3 W/m 37,7 km/h (5 Bft) 97,87 %
16.11.2015 16:40 11,7 C 11,7 C 10,0 C 94 % 3 lf 1012,1 hPa 0,0 l/m 0 min 2 min 0 W/m 31,4 km/h (5 Bft) 100,00 %
16.11.2015 16:42 11,7 C 11,7 C 10,0 C 94 % 5 lf 1012,1 hPa 0,0 l/m 0 min 2 min 0 W/m 27,2 km/h (4 Bft) 100,00 %
16.11.2015 16:44 11,7 C 11,7 C 10,0 C 94 % 4 lf 1012,1 hPa 0,0 l/m 0 min 2 min 0 W/m 23,0 km/h (4 Bft) 100,00 %
16.11.2015 16:46 11,7 C 11,7 C 10,0 C 94 % 3 lf 1012,1 hPa 0,0 l/m 0 min 2 min 0 W/m 23,0 km/h (4 Bft) 97,87 %
16.11.2015 16:48 11,7 C 11,7 C 10,0 C 94 % 3 lf 1012,1 hPa 0,0 l/m 0 min 2 min 0 W/m 23,0 km/h (4 Bft) 100,00 %
16.11.2015 16:50 11,7 C 11,7 C 10,0 C 94 % 8 lf 1012,2 hPa 0,0 l/m 0 min 2 min 0 W/m 23,0 km/h (4 Bft) 100,00 %
16.11.2015 16:52 11,7 C 11,7 C 10,0 C 94 % 12 lf 1012,2 hPa 0,0 l/m 0 min 2 min 0 W/m 29,3 km/h (5 Bft) 97,87 %
16.11.2015 16:54 11,7 C 11,7 C 10,0 C 94 % 10 lf 1012,1 hPa 0,0 l/m 0 min 2 min 0 W/m 16,7 km/h (3 Bft) 100,00 %
16.11.2015 16:56 11,7 C 11,7 C 10,0 C 94 % 10 lf 1012,1 hPa 0,0 l/m 0 min 2 min 0 W/m 20,9 km/h (4 Bft) 95,74 %
16.11.2015 16:58 11,7 C 11,7 C 10,0 C 94 % 15 lf 1012,1 hPa 0,0 l/m 0 min 2 min 0 W/m 37,7 km/h (5 Bft) 97,87 %
16.11.2015 17:00 11,7 C 11,7 C 10,0 C 94 % 15 lf 1012,1 hPa 0,0 l/m 0 min 2 min 0 W/m 31,4 km/h (5 Bft) 100,00 %
16.11.2015 17:02 11,7 C 11,7 C 10,0 C 94 % 15 lf 1012,2 hPa 0,0 l/m 0 min 2 min 0 W/m 25,1 km/h (4 Bft) 100,00 %
16.11.2015 17:04 11,7 C 11,7 C 10,0 C 94 % 15 lf 1012,1 hPa 0,0 l/m 0 min 2 min 0 W/m 20,9 km/h (4 Bft) 95,74 %
16.11.2015 17:06 11,7 C 11,7 C 10,0 C 94 % 15 lf 1012,2 hPa 0,0 l/m 0 min 2 min 0 W/m 25,1 km/h (4 Bft) 98,00 %
16.11.2015 17:08 11,7 C 11,1 C 10,0 C 94 % 15 lf 1012,2 hPa 0,0 l/m 0 min 2 min 0 W/m 29,3 km/h (5 Bft) 97,83 %
16.11.2015 17:10 11,7 C 11,1 C 10,0 C 94 % 15 lf 1012,1 hPa 0,0 l/m 0 min 2 min 0 W/m 33,5 km/h (5 Bft) 97,87 %
16.11.2015 17:12 11,7 C 11,1 C 10,0 C 94 % 15 lf 1012,0 hPa 0,0 l/m 0 min 2 min 0 W/m 27,2 km/h (4 Bft) 93,62 %
16.11.2015 17:14 11,7 C 11,1 C 10,0 C 94 % 15 lf 1012,0 hPa 0,0 l/m 0 min 2 min 0 W/m 14,6 km/h (3 Bft) 95,74 %
16.11.2015 17:16 11,7 C 11,1 C 10,0 C 94 % 15 lf 1012,0 hPa 0,0 l/m 0 min 2 min 0 W/m 27,2 km/h (4 Bft) 95,74 %
16.11.2015 17:18 11,7 C 11,1 C 10,0 C 94 % 15 lf 1012,0 hPa 0,0 l/m 0 min 0 min 0 W/m 29,3 km/h (5 Bft) 95,74 %
16.11.2015 17:20 11,7 C 11,1 C 10,0 C 94 % 15 lf 1012,0 hPa 0,0 l/m 0 min 2 min 0 W/m 23,0 km/h (4 Bft) 97,83 %
16.11.2015 17:22 11,7 C 11,1 C 10,0 C 95 % 15 lf 1012,0 hPa 0,0 l/m 0 min 0 min 0 W/m 23,0 km/h (4 Bft) 97,92 %
16.11.2015 17:24 11,7 C 11,1 C 10,0 C 95 % 15 lf 1012,0 hPa 0,0 l/m 0 min 2 min 0 W/m 29,3 km/h (5 Bft) 95,74 %
16.11.2015 17:26 11,7 C 11,1 C 10,0 C 95 % 15 lf 1011,9 hPa 0,0 l/m 0 min 0 min 0 W/m 23,0 km/h (4 Bft) 97,87 %
16.11.2015 17:28 11,7 C 11,1 C 10,0 C 95 % 15 lf 1011,9 hPa 0,0 l/m 0 min 2 min 0 W/m 23,0 km/h (4 Bft) 97,83 %
16.11.2015 17:30 11,7 C 11,1 C 10,0 C 95 % 15 lf 1012,0 hPa 0,0 l/m 0 min 2 min 0 W/m 27,2 km/h (4 Bft) 93,62 %
16.11.2015 17:32 11,7 C 11,1 C 10,0 C 95 % 15 lf 1011,8 hPa 0,0 l/m 0 min 2 min 0 W/m 33,5 km/h (5 Bft) 93,62 %
16.11.2015 17:34 11,7 C 11,1 C 10,0 C 95 % 15 lf 1011,9 hPa 0,2 l/m 0 min 2 min 0 W/m 35,6 km/h (5 Bft) 97,87 %
16.11.2015 17:36 11,7 C 11,1 C 10,0 C 95 % 15 lf 1011,9 hPa 0,0 l/m 0 min 2 min 0 W/m 20,9 km/h (4 Bft) 95,74 %
16.11.2015 17:38 11,7 C 11,1 C 10,0 C 95 % 15 lf 1011,8 hPa 0,0 l/m 0 min 0 min 0 W/m 25,1 km/h (4 Bft) 95,74 %
16.11.2015 17:40 11,7 C 11,1 C 10,0 C 95 % 15 lf 1011,8 hPa 0,0 l/m 0 min 0 min 0 W/m 16,7 km/h (3 Bft) 95,65 %
16.11.2015 17:42 11,7 C 11,1 C 10,0 C 95 % 15 lf 1011,6 hPa 0,0 l/m 0 min 0 min 0 W/m 31,4 km/h (5 Bft) 97,87 %
16.11.2015 17:44 11,7 C 11,1 C 10,0 C 95 % 15 lf 1011,7 hPa 0,0 l/m 0 min 0 min 0 W/m 23,0 km/h (4 Bft) 95,74 %
16.11.2015 17:46 11,7 C 11,1 C 10,0 C 95 % 15 lf 1011,8 hPa 0,0 l/m 0 min 0 min 0 W/m 25,1 km/h (4 Bft) 97,87 %
16.11.2015 17:48 11,7 C 11,1 C 10,0 C 95 % 15 lf 1011,9 hPa 0,0 l/m 0 min 2 min 0 W/m 25,1 km/h (4 Bft) 95,74 %
16.11.2015 17:50 11,7 C 11,1 C 10,0 C 95 % 15 lf 1011,8 hPa 0,0 l/m 0 min 2 min 0 W/m 27,2 km/h (4 Bft) 95,74 %
16.11.2015 17:52 11,7 C 11,1 C 10,0 C 95 % 15 lf 1011,7 hPa 0,0 l/m 0 min 2 min 0 W/m 27,2 km/h (4 Bft) 97,83 %
16.11.2015 17:54 11,7 C 11,1 C 10,0 C 95 % 15 lf 1011,8 hPa 0,0 l/m 0 min 2 min 0 W/m 20,9 km/h (4 Bft) 91,49 %
16.11.2015 17:56 11,7 C 11,1 C 10,0 C 95 % 15 lf 1011,8 hPa 0,0 l/m 0 min 0 min 0 W/m 14,6 km/h (3 Bft) 95,74 %
16.11.2015 17:58 11,7 C 11,7 C 10,0 C 95 % 15 lf 1011,8 hPa 0,0 l/m 0 min 2 min 0 W/m 33,5 km/h (5 Bft) 100,00 %
16.11.2015 18:00 11,7 C 11,7 C 10,0 C 95 % 15 lf 1011,7 hPa 0,0 l/m 0 min 0 min 0 W/m 23,0 km/h (4 Bft) 97,87 %
16.11.2015 18:02 11,7 C 11,7 C 10,0 C 95 % 15 lf 1011,6 hPa 0,0 l/m 0 min 2 min 0 W/m 23,0 km/h (4 Bft) 91,49 %
16.11.2015 18:04 11,7 C 11,7 C 10,0 C 95 % 15 lf 1011,6 hPa 0,0 l/m 0 min 2 min 0 W/m 27,2 km/h (4 Bft) 94,34 %
16.11.2015 18:06 11,7 C 11,7 C 10,0 C 95 % 15 lf 1011,8 hPa 0,0 l/m 0 min 0 min 0 W/m 25,1 km/h (4 Bft) 97,37 %
16.11.2015 18:08 11,7 C 11,7 C 10,0 C 95 % 15 lf 1011,8 hPa 0,0 l/m 0 min 0 min 0 W/m 25,1 km/h (4 Bft) 95,65 %
16.11.2015 18:10 11,8 C 11,7 C 10,0 C 95 % 15 lf 1011,9 hPa 0,0 l/m 0 min 0 min 0 W/m 33,5 km/h (5 Bft) 95,74 %
16.11.2015 18:12 11,8 C 11,7 C 10,0 C 95 % 15 lf 1011,9 hPa 0,0 l/m 0 min 0 min 0 W/m 31,4 km/h (5 Bft) 95,74 %
16.11.2015 18:14 11,8 C 11,7 C 10,0 C 95 % 15 lf 1012,0 hPa 0,0 l/m 0 min 0 min 0 W/m 27,2 km/h (4 Bft) 93,62 %
16.11.2015 18:16 11,8 C 11,7 C 10,0 C 95 % 15 lf 1012,0 hPa 0,0 l/m 0 min 0 min 0 W/m 23,0 km/h (4 Bft) 93,62 %
16.11.2015 18:18 11,8 C 11,7 C 10,0 C 95 % 15 lf 1012,0 hPa 0,0 l/m 0 min 0 min 0 W/m 25,1 km/h (4 Bft) 95,74 %
16.11.2015 18:20 11,8 C 11,7 C 10,0 C 95 % 14 lf 1012,0 hPa 0,0 l/m 0 min 0 min 0 W/m 27,2 km/h (4 Bft) 94,29 %
16.11.2015 18:22 11,8 C 11,7 C 10,6 C 95 % 13 lf 1012,0 hPa 0,0 l/m 0 min 0 min 0 W/m 27,2 km/h (4 Bft) 88,52 %
16.11.2015 18:24 11,9 C 12,2 C 10,6 C 95 % 12 lf 1012,0 hPa 0,0 l/m 0 min 0 min 0 W/m 25,1 km/h (4 Bft) 95,74 %
16.11.2015 18:26 11,9 C 12,2 C 10,6 C 95 % 10 lf 1012,0 hPa 0,0 l/m 0 min 0 min 0 W/m 18,8 km/h (3 Bft) 97,87 %
16.11.2015 18:28 11,9 C 12,2 C 10,6 C 95 % 8 lf 1012,0 hPa 0,0 l/m 0 min 0 min 0 W/m 43,9 km/h (6 Bft) 97,83 %
16.11.2015 18:30 11,9 C 12,2 C 10,6 C 95 % 4 lf 1011,9 hPa 0,0 l/m 0 min 0 min 0 W/m 35,6 km/h (5 Bft) 97,87 %
16.11.2015 18:32 11,9 C 12,2 C 10,6 C 95 % 3 lf 1012,1 hPa 0,0 l/m 0 min 2 min 0 W/m 25,1 km/h (4 Bft) 95,74 %
16.11.2015 18:34 12,0 C 12,2 C 10,6 C 95 % 2 lf 1012,0 hPa 0,0 l/m 0 min 0 min 0 W/m 25,1 km/h (4 Bft) 95,74 %
16.11.2015 18:36 12,0 C 12,2 C 10,6 C 95 % 1 lf 1012,0 hPa 0,0 l/m 0 min 0 min 0 W/m 29,3 km/h (5 Bft) 95,74 %
16.11.2015 18:38 12,0 C 12,2 C 10,6 C 95 % 0 lf 1012,0 hPa 0,0 l/m 0 min 0 min 0 W/m 33,5 km/h (5 Bft) 91,30 %
16.11.2015 18:40 12,1 C 12,2 C 10,6 C 95 % 0 lf 1012,1 hPa 0,0 l/m 0 min 0 min 0 W/m 23,0 km/h (4 Bft) 91,49 %
16.11.2015 18:42 12,1 C 12,2 C 10,6 C 95 % 0 lf 1012,0 hPa 0,0 l/m 0 min 0 min 0 W/m 18,8 km/h (3 Bft) 91,49 %
16.11.2015 18:44 12,1 C 12,2 C 10,6 C 95 % 0 lf 1011,9 hPa 0,0 l/m 0 min 0 min 0 W/m 31,4 km/h (5 Bft) 91,49 %
16.11.2015 18:46 12,1 C 12,8 C 10,6 C 95 % 0 lf 1011,9 hPa 0,0 l/m 0 min 0 min 0 W/m 31,4 km/h (5 Bft) 95,74 %
16.11.2015 18:48 12,2 C 12,2 C 10,6 C 95 % 0 lf 1011,9 hPa 0,0 l/m 0 min 0 min 0 W/m 18,8 km/h (3 Bft) 93,62 %
16.11.2015 18:50 12,2 C 12,2 C 10,6 C 95 % 0 lf 1011,8 hPa 0,0 l/m 0 min 0 min 0 W/m 27,2 km/h (4 Bft) 95,65 %
16.11.2015 18:52 12,2 C 12,2 C 10,6 C 95 % 0 lf 1011,9 hPa 0,0 l/m 0 min 0 min 0 W/m 18,8 km/h (3 Bft) 95,74 %
16.11.2015 18:54 12,2 C 12,2 C 10,6 C 95 % 0 lf 1011,8 hPa 0,0 l/m 0 min 0 min 0 W/m 25,1 km/h (4 Bft) 89,36 %
16.11.2015 18:56 12,2 C 12,2 C 10,6 C 95 % 0 lf 1011,9 hPa 0,0 l/m 0 min 0 min 0 W/m 20,9 km/h (4 Bft) 93,62 %
16.11.2015 18:58 12,2 C 12,8 C 10,6 C 95 % 0 lf 1012,0 hPa 0,0 l/m 0 min 0 min 0 W/m 31,4 km/h (5 Bft) 93,62 %
16.11.2015 19:00 12,3 C 12,2 C 10,6 C 95 % 14 lf 1011,8 hPa 0,0 l/m 0 min 2 min 0 W/m 27,2 km/h (4 Bft) 97,87 %
16.11.2015 19:02 12,3 C 12,2 C 10,6 C 95 % 15 lf 1011,9 hPa 0,0 l/m 0 min 2 min 0 W/m 25,1 km/h (4 Bft) 95,65 %
16.11.2015 19:04 12,3 C 12,2 C 10,6 C 95 % 15 lf 1012,0 hPa 0,0 l/m 0 min 2 min 0 W/m 18,8 km/h (3 Bft) 95,74 %
16.11.2015 19:06 12,3 C 12,2 C 10,6 C 95 % 14 lf 1012,0 hPa 0,0 l/m 0 min 0 min 0 W/m 23,0 km/h (4 Bft) 93,02 %
16.11.2015 19:08 12,3 C 12,2 C 10,6 C 95 % 13 lf 1012,1 hPa 0,0 l/m 0 min 0 min 0 W/m 27,2 km/h (4 Bft) 95,74 %
16.11.2015 19:10 12,3 C 12,2 C 10,6 C 95 % 12 lf 1012,1 hPa 0,0 l/m 0 min 0 min 0 W/m 31,4 km/h (5 Bft) 95,74 %
16.11.2015 19:12 12,3 C 12,2 C 10,6 C 95 % 11 lf 1012,0 hPa 0,0 l/m 0 min 0 min 0 W/m 23,0 km/h (4 Bft) 97,87 %
16.11.2015 19:14 12,3 C 12,2 C 10,6 C 95 % 9 lf 1012,0 hPa 0,0 l/m 0 min 0 min 0 W/m 18,8 km/h (3 Bft) 97,87 %
16.11.2015 19:16 12,3 C 12,2 C 10,6 C 95 % 7 lf 1012,0 hPa 0,0 l/m 0 min 0 min 0 W/m 27,2 km/h (4 Bft) 95,74 %
16.11.2015 19:18 12,3 C 12,2 C 10,6 C 95 % 4 lf 1012,1 hPa 0,0 l/m 0 min 0 min 0 W/m 23,0 km/h (4 Bft) 97,83 %
16.11.2015 19:20 12,3 C 12,2 C 10,6 C 95 % 3 lf 1012,0 hPa 0,0 l/m 0 min 0 min 0 W/m 27,2 km/h (4 Bft) 97,87 %
16.11.2015 19:22 12,3 C 12,8 C 10,6 C 95 % 2 lf 1012,0 hPa 0,0 l/m 0 min 0 min 0 W/m 35,6 km/h (5 Bft) 97,87 %
16.11.2015 19:24 12,3 C 12,8 C 10,6 C 95 % 1 lf 1012,0 hPa 0,0 l/m 0 min 0 min 0 W/m 29,3 km/h (5 Bft) 95,74 %
16.11.2015 19:26 12,3 C 12,8 C 10,6 C 94 % 0 lf 1012,1 hPa 0,0 l/m 0 min 0 min 0 W/m 27,2 km/h (4 Bft) 95,74 %
16.11.2015 19:28 12,3 C 12,8 C 10,6 C 94 % 0 lf 1012,0 hPa 0,0 l/m 0 min 0 min 0 W/m 20,9 km/h (4 Bft) 95,74 %
16.11.2015 19:30 12,3 C 12,8 C 11,1 C 94 % 0 lf 1012,1 hPa 0,0 l/m 0 min 0 min 0 W/m 18,8 km/h (3 Bft) 95,65 %
16.11.2015 19:32 12,3 C 12,8 C 11,1 C 94 % 0 lf 1012,1 hPa 0,0 l/m 0 min 0 min 0 W/m 20,9 km/h (4 Bft) 97,92 %
16.11.2015 19:34 12,4 C 12,8 C 10,6 C 94 % 0 lf 1012,0 hPa 0,0 l/m 0 min 0 min 0 W/m 25,1 km/h (4 Bft) 97,87 %
16.11.2015 19:36 12,4 C 12,8 C 10,6 C 94 % 0 lf 1012,0 hPa 0,0 l/m 0 min 0 min 0 W/m 27,2 km/h (4 Bft) 98,00 %
16.11.2015 19:38 12,4 C 12,8 C 10,6 C 94 % 0 lf 1012,0 hPa 0,0 l/m 0 min 0 min 0 W/m 31,4 km/h (5 Bft) 93,48 %
16.11.2015 19:40 12,4 C 12,8 C 11,1 C 94 % 0 lf 1012,0 hPa 0,0 l/m 0 min 0 min 0 W/m 35,6 km/h (5 Bft) 100,00 %
16.11.2015 19:42 12,4 C 12,8 C 11,1 C 94 % 0 lf 1011,9 hPa 0,0 l/m 0 min 0 min 0 W/m 31,4 km/h (5 Bft) 95,74 %
16.11.2015 19:44 12,4 C 12,8 C 11,1 C 94 % 0 lf 1011,9 hPa 0,0 l/m 0 min 0 min 0 W/m 35,6 km/h (5 Bft) 100,00 %
16.11.2015 19:46 12,4 C 12,8 C 11,1 C 94 % 0 lf 1011,8 hPa 0,0 l/m 0 min 0 min 0 W/m 27,2 km/h (4 Bft) 95,74 %
16.11.2015 19:48 12,4 C 12,8 C 11,1 C 94 % 0 lf 1011,9 hPa 0,0 l/m 0 min 0 min 0 W/m 27,2 km/h (4 Bft) 97,87 %
16.11.2015 19:50 12,4 C 12,8 C 11,1 C 94 % 0 lf 1011,9 hPa 0,0 l/m 0 min 0 min 0 W/m 33,5 km/h (5 Bft) 91,30 %
16.11.2015 19:52 12,5 C 12,8 C 11,1 C 94 % 0 lf 1011,9 hPa 0,0 l/m 0 min 0 min 0 W/m 35,6 km/h (5 Bft) 97,87 %
16.11.2015 19:54 12,5 C 12,8 C 11,1 C 94 % 0 lf 1011,9 hPa 0,0 l/m 0 min 0 min 0 W/m 31,4 km/h (5 Bft) 97,87 %
16.11.2015 19:56 12,5 C 12,8 C 11,1 C 94 % 0 lf 1011,8 hPa 0,0 l/m 0 min 0 min 0 W/m 33,5 km/h (5 Bft) 93,62 %
16.11.2015 19:58 12,5 C 12,8 C 11,1 C 94 % 0 lf 1011,9 hPa 0,0 l/m 0 min 0 min 0 W/m 27,2 km/h (4 Bft) 93,62 %
16.11.2015 20:00 12,5 C 12,8 C 11,1 C 94 % 0 lf 1011,9 hPa 0,0 l/m 0 min 0 min 0 W/m 27,2 km/h (4 Bft) 93,48 %
16.11.2015 20:02 12,6 C 12,8 C 11,1 C 94 % 0 lf 1012,0 hPa 0,0 l/m 0 min 0 min 0 W/m 20,9 km/h (4 Bft) 95,74 %
16.11.2015 20:04 12,6 C 12,8 C 11,1 C 94 % 0 lf 1011,8 hPa 0,0 l/m 0 min 0 min 0 W/m 33,5 km/h (5 Bft) 95,74 %
16.11.2015 20:06 12,6 C 12,8 C 11,1 C 94 % 0 lf 1011,8 hPa 0,0 l/m 0 min 0 min 0 W/m 31,4 km/h (5 Bft) 94,44 %
16.11.2015 20:08 12,6 C 12,8 C 11,1 C 94 % 0 lf 1011,8 hPa 0,0 l/m 0 min 0 min 0 W/m 37,7 km/h (5 Bft) 93,62 %
16.11.2015 20:10 12,6 C 12,8 C 11,1 C 94 % 0 lf 1011,8 hPa 0,0 l/m 0 min 0 min 0 W/m 29,3 km/h (5 Bft) 91,49 %
16.11.2015 20:12 12,6 C 12,8 C 11,1 C 94 % 0 lf 1011,8 hPa 0,0 l/m 0 min 0 min 0 W/m 25,1 km/h (4 Bft) 94,74 %
16.11.2015 20:14 12,6 C 12,8 C 11,1 C 94 % 1 lf 1011,8 hPa 0,0 l/m 0 min 0 min 0 W/m 33,5 km/h (5 Bft) 95,74 %
16.11.2015 20:16 12,6 C 12,8 C 11,1 C 94 % 0 lf 1011,8 hPa 0,0 l/m 0 min 0 min 0 W/m 25,1 km/h (4 Bft) 95,65 %
16.11.2015 20:18 12,6 C 12,8 C 11,1 C 94 % 0 lf 1011,7 hPa 0,0 l/m 0 min 0 min 0 W/m 20,9 km/h (4 Bft) 97,87 %
16.11.2015 20:20 12,6 C 12,2 C 11,1 C 94 % 0 lf 1011,6 hPa 0,0 l/m 0 min 0 min 0 W/m 29,3 km/h (5 Bft) 95,74 %
16.11.2015 20:22 12,6 C 12,2 C 11,1 C 94 % 0 lf 1011,6 hPa 0,0 l/m 0 min 0 min 0 W/m 23,0 km/h (4 Bft) 95,74 %
16.11.2015 20:24 12,6 C 12,8 C 11,1 C 94 % 0 lf 1011,8 hPa 0,0 l/m 0 min 0 min 0 W/m 25,1 km/h (4 Bft) 97,87 %
16.11.2015 20:26 12,6 C 12,8 C 11,1 C 94 % 0 lf 1011,7 hPa 0,0 l/m 0 min 0 min 0 W/m 25,1 km/h (4 Bft) 97,87 %
16.11.2015 20:28 12,6 C 12,8 C 11,1 C 94 % 1 lf 1011,8 hPa 0,0 l/m 0 min 0 min 0 W/m 31,4 km/h (5 Bft) 97,83 %
16.11.2015 20:30 12,6 C 12,8 C 11,1 C 94 % 1 lf 1011,7 hPa 0,0 l/m 0 min 0 min 0 W/m 20,9 km/h (4 Bft) 95,74 %
16.11.2015 20:32 12,6 C 12,8 C 11,1 C 94 % 1 lf 1011,7 hPa 0,0 l/m 0 min 0 min 0 W/m 18,8 km/h (3 Bft) 97,92 %
16.11.2015 20:34 12,6 C 12,8 C 11,1 C 94 % 6 lf 1011,7 hPa 0,0 l/m 0 min 2 min 0 W/m 31,4 km/h (5 Bft) 97,87 %
16.11.2015 20:36 12,6 C 12,2 C 11,1 C 94 % 5 lf 1011,7 hPa 0,0 l/m 0 min 2 min 0 W/m 27,2 km/h (4 Bft) 97,87 %
16.11.2015 20:38 12,6 C 12,2 C 11,1 C 94 % 4 lf 1011,7 hPa 0,0 l/m 0 min 0 min 0 W/m 14,6 km/h (3 Bft) 95,74 %
16.11.2015 20:40 12,6 C 12,2 C 11,1 C 94 % 5 lf 1011,7 hPa 0,0 l/m 0 min 0 min 0 W/m 27,2 km/h (4 Bft) 95,74 %
16.11.2015 20:42 12,6 C 12,2 C 11,1 C 94 % 4 lf 1011,7 hPa 0,0 l/m 0 min 0 min 0 W/m 27,2 km/h (4 Bft) 97,87 %
16.11.2015 20:44 12,6 C 12,2 C 11,1 C 94 % 3 lf 1011,7 hPa 0,0 l/m 0 min 0 min 0 W/m 37,7 km/h (5 Bft) 97,87 %
16.11.2015 20:46 12,6 C 12,2 C 11,1 C 95 % 15 lf 1011,7 hPa 0,0 l/m 0 min 2 min 0 W/m 23,0 km/h (4 Bft) 93,62 %
16.11.2015 20:48 12,6 C 12,2 C 11,1 C 95 % 15 lf 1011,8 hPa 0,0 l/m 0 min 2 min 0 W/m 25,1 km/h (4 Bft) 100,00 %
16.11.2015 20:50 12,6 C 12,2 C 11,1 C 95 % 15 lf 1011,8 hPa 0,0 l/m 0 min 0 min 0 W/m 27,2 km/h (4 Bft) 95,74 %
16.11.2015 20:52 12,7 C 12,2 C 11,1 C 95 % 14 lf 1012,0 hPa 0,0 l/m 0 min 2 min 0 W/m 27,2 km/h (4 Bft) 95,74 %
16.11.2015 20:54 12,6 C 12,8 C 11,1 C 95 % 14 lf 1011,9 hPa 0,0 l/m 0 min 0 min 0 W/m 25,1 km/h (4 Bft) 97,87 %
16.11.2015 20:56 12,7 C 12,8 C 11,1 C 95 % 13 lf 1011,9 hPa 0,0 l/m 0 min 0 min 0 W/m 23,0 km/h (4 Bft) 97,87 %
16.11.2015 20:58 12,7 C 12,8 C 11,1 C 95 % 12 lf 1012,0 hPa 0,0 l/m 0 min 0 min 0 W/m 25,1 km/h (4 Bft) 97,87 %
16.11.2015 21:00 12,7 C 12,8 C 11,1 C 95 % 10 lf 1012,0 hPa 0,0 l/m 0 min 2 min 0 W/m 25,1 km/h (4 Bft) 97,83 %
16.11.2015 21:02 12,7 C 12,8 C 11,1 C 95 % 9 lf 1011,9 hPa 0,0 l/m 0 min 0 min 0 W/m 29,3 km/h (5 Bft) 97,87 %
16.11.2015 21:04 12,7 C 12,8 C 11,1 C 95 % 6 lf 1012,0 hPa 0,0 l/m 0 min 2 min 0 W/m 23,0 km/h (4 Bft) 95,74 %
16.11.2015 21:06 12,7 C 12,8 C 11,1 C 95 % 4 lf 1012,0 hPa 0,0 l/m 0 min 2 min 0 W/m 27,2 km/h (4 Bft) 96,23 %
16.11.2015 21:08 12,7 C 12,8 C 11,1 C 95 % 3 lf 1012,0 hPa 0,0 l/m 0 min 2 min 0 W/m 31,4 km/h (5 Bft) 97,87 %
16.11.2015 21:10 12,7 C 12,8 C 11,1 C 95 % 2 lf 1012,0 hPa 0,0 l/m 0 min 0 min 0 W/m 20,9 km/h (4 Bft) 97,87 %
16.11.2015 21:12 12,7 C 12,8 C 11,1 C 95 % 1 lf 1011,9 hPa 0,0 l/m 0 min 0 min 0 W/m 25,1 km/h (4 Bft) 93,62 %
16.11.2015 21:14 12,7 C 12,8 C 11,1 C 95 % 0 lf 1011,9 hPa 0,0 l/m 0 min 2 min 0 W/m 33,5 km/h (5 Bft) 97,83 %
16.11.2015 21:16 12,7 C 12,8 C 11,1 C 95 % 0 lf 1012,0 hPa 0,0 l/m 0 min 0 min 0 W/m 31,4 km/h (5 Bft) 97,87 %
16.11.2015 21:18 12,7 C 12,8 C 11,1 C 95 % 0 lf 1012,0 hPa 0,0 l/m 0 min 0 min 0 W/m 20,9 km/h (4 Bft) 93,62 %
16.11.2015 21:20 12,7 C 12,8 C 11,7 C 95 % 0 lf 1012,0 hPa 0,0 l/m 0 min 0 min 0 W/m 23,0 km/h (4 Bft) 97,87 %
16.11.2015 21:22 12,8 C 12,8 C 11,7 C 95 % 0 lf 1012,0 hPa 0,0 l/m 0 min 0 min 0 W/m 29,3 km/h (5 Bft) 97,87 %
16.11.2015 21:24 12,8 C 13,3 C 11,7 C 95 % 0 lf 1012,0 hPa 0,0 l/m 0 min 0 min 0 W/m 25,1 km/h (4 Bft) 97,83 %
16.11.2015 21:26 12,8 C 12,8 C 11,7 C 94 % 0 lf 1012,0 hPa 0,0 l/m 0 min 0 min 0 W/m 20,9 km/h (4 Bft) 95,74 %
16.11.2015 21:28 12,8 C 13,3 C 11,7 C 94 % 0 lf 1011,9 hPa 0,0 l/m 0 min 0 min 0 W/m 27,2 km/h (4 Bft) 95,74 %
16.11.2015 21:30 12,8 C 13,3 C 11,7 C 94 % 0 lf 1012,0 hPa 0,0 l/m 0 min 0 min 0 W/m 33,5 km/h (5 Bft) 93,62 %
16.11.2015 21:32 12,8 C 13,3 C 11,7 C 94 % 0 lf 1011,9 hPa 0,0 l/m 0 min 0 min 0 W/m 23,0 km/h (4 Bft) 97,92 %
16.11.2015 21:34 12,8 C 13,3 C 11,7 C 94 % 0 lf 1011,9 hPa 0,0 l/m 0 min 0 min 0 W/m 27,2 km/h (4 Bft) 97,87 %
16.11.2015 21:36 12,8 C 13,3 C 11,7 C 94 % 0 lf 1011,8 hPa 0,0 l/m 0 min 0 min 0 W/m 37,7 km/h (5 Bft) 97,37 %
16.11.2015 21:38 12,9 C 13,3 C 11,7 C 94 % 0 lf 1011,8 hPa 0,0 l/m 0 min 0 min 0 W/m 35,6 km/h (5 Bft) 97,83 %
16.11.2015 21:40 12,9 C 13,3 C 11,7 C 94 % 0 lf 1011,9 hPa 0,0 l/m 0 min 0 min 0 W/m 27,2 km/h (4 Bft) 95,74 %
16.11.2015 21:42 12,9 C 13,3 C 11,7 C 94 % 0 lf 1011,8 hPa 0,0 l/m 0 min 0 min 0 W/m 25,1 km/h (4 Bft) 97,87 %
16.11.2015 21:44 12,9 C 13,3 C 11,7 C 94 % 0 lf 1011,8 hPa 0,0 l/m 0 min 0 min 0 W/m 25,1 km/h (4 Bft) 95,74 %
16.11.2015 21:46 12,9 C 13,3 C 11,7 C 94 % 0 lf 1011,8 hPa 0,0 l/m 0 min 0 min 0 W/m 23,0 km/h (4 Bft) 93,62 %
16.11.2015 21:48 12,9 C 13,3 C 11,7 C 94 % 0 lf 1011,8 hPa 0,0 l/m 0 min 0 min 0 W/m 18,8 km/h (3 Bft) 91,49 %
16.11.2015 21:50 12,9 C 13,3 C 11,7 C 94 % 0 lf 1011,7 hPa 0,0 l/m 0 min 0 min 0 W/m 27,2 km/h (4 Bft) 93,48 %
16.11.2015 21:52 12,9 C 13,3 C 11,7 C 94 % 0 lf 1011,7 hPa 0,0 l/m 0 min 0 min 0 W/m 20,9 km/h (4 Bft) 95,92 %
16.11.2015 21:54 12,9 C 13,3 C 11,7 C 94 % 0 lf 1011,7 hPa 0,0 l/m 0 min 0 min 0 W/m 18,8 km/h (3 Bft) 97,92 %
16.11.2015 21:56 12,9 C 13,3 C 11,7 C 94 % 0 lf 1011,7 hPa 0,0 l/m 0 min 0 min 0 W/m 23,0 km/h (4 Bft) 93,62 %
16.11.2015 21:58 12,9 C 13,3 C 11,7 C 94 % 0 lf 1011,8 hPa 0,0 l/m 0 min 0 min 0 W/m 23,0 km/h (4 Bft) 95,74 %
16.11.2015 22:00 12,9 C 12,8 C 11,7 C 94 % 0 lf 1011,7 hPa 0,0 l/m 0 min 0 min 0 W/m 16,7 km/h (3 Bft) 93,48 %
16.11.2015 22:02 12,9 C 12,8 C 11,7 C 94 % 0 lf 1011,6 hPa 0,0 l/m 0 min 0 min 0 W/m 20,9 km/h (4 Bft) 97,96 %
16.11.2015 22:04 12,9 C 12,8 C 11,7 C 94 % 0 lf 1011,7 hPa 0,0 l/m 0 min 0 min 0 W/m 18,8 km/h (3 Bft) 97,87 %
16.11.2015 22:06 12,9 C 13,3 C 11,7 C 94 % 0 lf 1011,7 hPa 0,0 l/m 0 min 0 min 0 W/m 23,0 km/h (4 Bft) 97,87 %
16.11.2015 22:08 12,9 C 12,8 C 11,7 C 94 % 0 lf 1011,7 hPa 0,0 l/m 0 min 0 min 0 W/m 18,8 km/h (3 Bft) 97,83 %
16.11.2015 22:10 12,9 C 13,3 C 11,7 C 94 % 0 lf 1011,8 hPa 0,0 l/m 0 min 0 min 0 W/m 25,1 km/h (4 Bft) 93,62 %
16.11.2015 22:12 12,9 C 13,3 C 11,7 C 94 % 0 lf 1011,8 hPa 0,0 l/m 0 min 0 min 0 W/m 25,1 km/h (4 Bft) 97,87 %
16.11.2015 22:14 12,9 C 13,3 C 11,7 C 94 % 1 lf 1011,8 hPa 0,0 l/m 0 min 0 min 0 W/m 20,9 km/h (4 Bft) 95,74 %
16.11.2015 22:16 12,9 C 13,3 C 11,7 C 94 % 3 lf 1011,8 hPa 0,0 l/m 0 min 2 min 0 W/m 20,9 km/h (4 Bft) 95,74 %
16.11.2015 22:18 12,9 C 12,8 C 11,7 C 94 % 2 lf 1011,7 hPa 0,0 l/m 0 min 2 min 0 W/m 23,0 km/h (4 Bft) 97,87 %
16.11.2015 22:20 12,9 C 12,8 C 11,7 C 93 % 2 lf 1011,6 hPa 0,0 l/m 0 min 2 min 0 W/m 16,7 km/h (3 Bft) 95,65 %
16.11.2015 22:22 12,9 C 12,8 C 11,7 C 93 % 4 lf 1011,6 hPa 0,0 l/m 0 min 2 min 0 W/m 25,1 km/h (4 Bft) 100,00 %
16.11.2015 22:24 12,9 C 12,8 C 11,7 C 93 % 14 lf 1011,6 hPa 0,0 l/m 0 min 2 min 0 W/m 20,9 km/h (4 Bft) 97,87 %
16.11.2015 22:26 12,9 C 12,8 C 11,1 C 93 % 14 lf 1011,7 hPa 0,0 l/m 0 min 2 min 0 W/m 20,9 km/h (4 Bft) 97,87 %
16.11.2015 22:28 12,9 C 12,8 C 11,1 C 93 % 13 lf 1011,7 hPa 0,0 l/m 0 min 0 min 0 W/m 18,8 km/h (3 Bft) 95,74 %
16.11.2015 22:30 12,9 C 12,8 C 11,1 C 93 % 12 lf 1011,7 hPa 0,0 l/m 0 min 0 min 0 W/m 16,7 km/h (3 Bft) 97,87 %
16.11.2015 22:32 12,9 C 12,8 C 11,1 C 93 % 11 lf 1011,6 hPa 0,0 l/m 0 min 0 min 0 W/m 16,7 km/h (3 Bft) 97,14 %
16.11.2015 22:34 12,9 C 12,8 C 11,1 C 93 % 10 lf 1011,6 hPa 0,0 l/m 0 min 0 min 0 W/m 14,6 km/h (3 Bft) 95,74 %
16.11.2015 22:36 12,9 C 12,8 C 11,1 C 93 % 8 lf 1011,5 hPa 0,0 l/m 0 min 0 min 0 W/m 18,8 km/h (3 Bft) 94,44 %
16.11.2015 22:38 12,9 C 12,8 C 11,1 C 93 % 7 lf 1011,6 hPa 0,0 l/m 0 min 2 min 0 W/m 14,6 km/h (3 Bft) 93,62 %
16.11.2015 22:40 12,9 C 12,8 C 11,1 C 93 % 4 lf 1011,6 hPa 0,0 l/m 0 min 0 min 0 W/m 20,9 km/h (4 Bft) 95,74 %
16.11.2015 22:42 12,9 C 12,8 C 11,1 C 93 % 3 lf 1011,5 hPa 0,0 l/m 0 min 0 min 0 W/m 20,9 km/h (4 Bft) 97,87 %
16.11.2015 22:44 12,9 C 12,8 C 11,1 C 93 % 3 lf 1011,4 hPa 0,0 l/m 0 min 0 min 0 W/m 16,7 km/h (3 Bft) 97,87 %
16.11.2015 22:46 12,9 C 12,8 C 11,1 C 93 % 1 lf 1011,3 hPa 0,0 l/m 0 min 0 min 0 W/m 16,7 km/h (3 Bft) 95,74 %
16.11.2015 22:48 12,9 C 12,8 C 11,1 C 93 % 1 lf 1011,3 hPa 0,0 l/m 0 min 2 min 0 W/m 18,8 km/h (3 Bft) 95,65 %
16.11.2015 22:50 12,8 C 12,8 C 11,1 C 93 % 1 lf 1011,3 hPa 0,0 l/m 0 min 2 min 0 W/m 23,0 km/h (4 Bft) 97,87 %
16.11.2015 22:52 12,9 C 12,8 C 11,1 C 93 % 0 lf 1011,3 hPa 0,0 l/m 0 min 0 min 0 W/m 18,8 km/h (3 Bft) 95,74 %
16.11.2015 22:54 12,8 C 12,8 C 11,1 C 93 % 0 lf 1011,3 hPa 0,0 l/m 0 min 0 min 0 W/m 16,7 km/h (3 Bft) 95,74 %
16.11.2015 22:56 12,8 C 12,8 C 11,1 C 93 % 0 lf 1011,3 hPa 0,0 l/m 0 min 0 min 0 W/m 18,8 km/h (3 Bft) 93,62 %
16.11.2015 22:58 12,8 C 12,8 C 11,1 C 93 % 0 lf 1011,3 hPa 0,0 l/m 0 min 0 min 0 W/m 23,0 km/h (4 Bft) 95,74 %
16.11.2015 23:00 12,8 C 12,8 C 11,1 C 93 % 0 lf 1011,4 hPa 0,0 l/m 0 min 0 min 0 W/m 20,9 km/h (4 Bft) 93,48 %
16.11.2015 23:02 12,8 C 12,8 C 11,1 C 93 % 0 lf 1011,3 hPa 0,0 l/m 0 min 0 min 0 W/m 10,5 km/h (2 Bft) 93,75 %
16.11.2015 23:04 12,8 C 12,8 C 11,1 C 93 % 0 lf 1011,3 hPa 0,0 l/m 0 min 0 min 0 W/m 14,6 km/h (3 Bft) 95,74 %
16.11.2015 23:06 12,8 C 12,8 C 11,1 C 93 % 0 lf 1011,4 hPa 0,0 l/m 0 min 0 min 0 W/m 20,9 km/h (4 Bft) 92,00 %
16.11.2015 23:08 12,8 C 12,8 C 11,1 C 93 % 0 lf 1011,4 hPa 0,0 l/m 0 min 0 min 0 W/m 20,9 km/h (4 Bft) 89,13 %
16.11.2015 23:10 12,8 C 12,8 C 11,1 C 93 % 0 lf 1011,4 hPa 0,0 l/m 0 min 0 min 0 W/m 16,7 km/h (3 Bft) 95,74 %
16.11.2015 23:12 12,7 C 12,8 C 11,1 C 93 % 0 lf 1011,4 hPa 0,0 l/m 0 min 0 min 0 W/m 23,0 km/h (4 Bft) 95,74 %
16.11.2015 23:14 12,7 C 12,8 C 11,1 C 93 % 0 lf 1011,4 hPa 0,0 l/m 0 min 0 min 0 W/m 23,0 km/h (4 Bft) 93,62 %
16.11.2015 23:16 12,7 C 12,8 C 11,1 C 93 % 0 lf 1011,3 hPa 0,0 l/m 0 min 0 min 0 W/m 23,0 km/h (4 Bft) 93,62 %
16.11.2015 23:18 12,7 C 12,8 C 11,1 C 93 % 0 lf 1011,3 hPa 0,0 l/m 0 min 0 min 0 W/m 8,4 km/h (2 Bft) 95,65 %
16.11.2015 23:20 12,7 C 12,8 C 11,1 C 93 % 0 lf 1011,4 hPa 0,0 l/m 0 min 0 min 0 W/m 14,6 km/h (3 Bft) 93,62 %
16.11.2015 23:22 12,7 C 12,8 C 11,1 C 93 % 0 lf 1011,3 hPa 0,0 l/m 0 min 0 min 0 W/m 12,6 km/h (3 Bft) 91,49 %
16.11.2015 23:24 12,7 C 12,8 C 11,1 C 93 % 0 lf 1011,4 hPa 0,0 l/m 0 min 0 min 0 W/m 20,9 km/h (4 Bft) 95,74 %
16.11.2015 23:26 12,7 C 12,8 C 11,1 C 93 % 2 lf 1011,4 hPa 0,0 l/m 0 min 0 min 0 W/m 14,6 km/h (3 Bft) 89,36 %
16.11.2015 23:28 12,7 C 12,8 C 11,1 C 93 % 1 lf 1011,3 hPa 0,0 l/m 0 min 0 min 0 W/m 16,7 km/h (3 Bft) 93,62 %
16.11.2015 23:30 12,7 C 12,8 C 11,1 C 93 % 2 lf 1011,3 hPa 0,0 l/m 0 min 2 min 0 W/m 16,7 km/h (3 Bft) 95,74 %
16.11.2015 23:32 12,7 C 12,8 C 11,1 C 93 % 2 lf 1011,2 hPa 0,0 l/m 0 min 2 min 0 W/m 14,6 km/h (3 Bft) 97,83 %
16.11.2015 23:34 12,7 C 12,8 C 11,1 C 93 % 4 lf 1011,2 hPa 0,0 l/m 0 min 2 min 0 W/m 18,8 km/h (3 Bft) 95,74 %
16.11.2015 23:36 12,7 C 12,8 C 11,1 C 93 % 9 lf 1011,1 hPa 0,0 l/m 0 min 2 min 0 W/m 14,6 km/h (3 Bft) 94,29 %
16.11.2015 23:38 12,7 C 12,2 C 10,6 C 93 % 15 lf 1011,1 hPa 0,0 l/m 0 min 2 min 0 W/m 23,0 km/h (4 Bft) 95,74 %
16.11.2015 23:40 12,7 C 12,2 C 10,6 C 93 % 15 lf 1011,1 hPa 0,0 l/m 0 min 2 min 0 W/m 23,0 km/h (4 Bft) 89,36 %
16.11.2015 23:42 12,7 C 12,2 C 10,6 C 93 % 15 lf 1011,1 hPa 0,0 l/m 0 min 2 min 0 W/m 14,6 km/h (3 Bft) 97,87 %
16.11.2015 23:44 12,7 C 12,2 C 10,6 C 93 % 15 lf 1011,0 hPa 0,2 l/m 0 min 2 min 0 W/m 16,7 km/h (3 Bft) 93,62 %
16.11.2015 23:46 12,7 C 12,2 C 10,6 C 93 % 15 lf 1011,1 hPa 0,0 l/m 0 min 2 min 0 W/m 20,9 km/h (4 Bft) 93,48 %
16.11.2015 23:48 12,7 C 12,2 C 10,6 C 93 % 15 lf 1011,0 hPa 0,0 l/m 0 min 2 min 0 W/m 16,7 km/h (3 Bft) 97,87 %
16.11.2015 23:50 12,7 C 11,7 C 10,6 C 93 % 15 lf 1011,1 hPa 0,0 l/m 0 min 2 min 0 W/m 25,1 km/h (4 Bft) 93,62 %
16.11.2015 23:52 12,7 C 11,7 C 10,6 C 93 % 15 lf 1011,0 hPa 0,0 l/m 0 min 2 min 0 W/m 25,1 km/h (4 Bft) 95,74 %
16.11.2015 23:54 12,7 C 11,7 C 10,6 C 93 % 15 lf 1011,0 hPa 0,0 l/m 0 min 2 min 0 W/m 18,8 km/h (3 Bft) 93,62 %
16.11.2015 23:56 12,7 C 11,7 C 10,6 C 93 % 15 lf 1011,0 hPa 0,0 l/m 0 min 2 min 0 W/m 14,6 km/h (3 Bft) 93,62 %
16.11.2015 23:58 12,7 C 11,7 C 10,6 C 93 % 15 lf 1011,0 hPa 0,0 l/m 0 min 2 min 0 W/m 16,7 km/h (3 Bft) 95,65 %
_ Min-Zeit 16:30 15:24 08:06 09:48 00:00 23:44 - - - - 23:18 11:48
Minimum _ 11,6 C 11,1 C 10,0 C 80 % 0 lf 1011,0 hPa - - - - 8,4 km/h (2 Bft) 60,87 %
_ Max-Zeit 12:22 12:28 12:12 17:22 15:18 00:02 17:34 09:46 14:57 11:34 10:38 01:18
Maximum _ 13,2 C 14,4 C 12,8 C 95 % 15 lf 1014,4 hPa 0,2 l/m 2 min 2 min 184 W/m 46,0 km/h
W-SW (6 Bft)
100,00 %
Durchschnitt _ 12,4 C 12,6 C 11,1 C 88 % 2 lf 1012,8 hPa #0,4 l/m #10 min. #3:24 h 65 W/m 26,2 km/h (4 Bft) 95,95 %
© 2015 W. Hausmann